Time,TemperatureF,DewpointF,PressureIn,WindDirection,WindDirectionDegrees,WindSpeedMPH,WindSpeedGustMPH,Humidity,HourlyPrecipIn,Conditions,Clouds,dailyrainin,SoftwareType,DateUTC
2013-06-22 00:00:00,66.2,59.5,30.16,ENE,62,0.0,0.0,79,0.00,,---,0.00,VWS V13.01,2013-06-22 04:00:00,
2013-06-22 00:01:00,66.1,59.4,30.16,ENE,62,0.0,0.0,79,0.00,,---,0.00,VWS V13.01,2013-06-22 04:01:00,
2013-06-22 00:06:00,66.1,59.8,30.16,ENE,61,0.0,0.0,80,0.00,,---,0.00,VWS V13.01,2013-06-22 04:06:00,
2013-06-22 00:11:00,66.0,59.7,30.16,ENE,61,0.0,0.0,80,0.00,,---,0.00,VWS V13.01,2013-06-22 04:11:00,
2013-06-22 00:16:00,65.9,59.9,30.16,ENE,61,0.0,0.0,81,0.00,,---,0.00,VWS V13.01,2013-06-22 04:16:00,
2013-06-22 00:21:00,65.8,59.8,30.16,ENE,61,0.0,0.0,81,0.00,,---,0.00,VWS V13.01,2013-06-22 04:21:00,
2013-06-22 00:22:00,65.7,59.7,30.16,ENE,62,0.0,0.0,81,0.00,,---,0.00,VWS V13.01,2013-06-22 04:22:00,
2013-06-22 00:26:00,65.6,59.6,30.16,ENE,61,0.0,0.0,81,0.00,,---,0.00,VWS V13.01,2013-06-22 04:26:00,
2013-06-22 00:27:00,65.6,59.6,30.16,ENE,62,0.0,0.0,81,0.00,,---,0.00,VWS V13.01,2013-06-22 04:27:00,
2013-06-22 00:30:00,69.9,65.2,29.89,NNW,338,1.0,11.0,85,0.00,,---,0.00,VWS V13.01,2013-06-22 04:30:00,
2013-06-22 00:31:00,65.5,59.5,30.16,ENE,62,0.0,0.0,81,0.00,,---,0.00,VWS V13.01,2013-06-22 04:31:00,
2013-06-22 00:32:00,65.5,59.5,30.16,ENE,61,0.0,0.0,81,0.00,,---,0.00,VWS V13.01,2013-06-22 04:32:00,
2013-06-22 00:36:00,65.4,59.4,30.16,ENE,61,0.0,0.0,81,0.00,,---,0.00,VWS V13.01,2013-06-22 04:36:00,
2013-06-22 00:37:00,65.4,59.4,30.16,ENE,62,0.0,0.0,81,0.00,,---,0.00,VWS V13.01,2013-06-22 04:37:00,
2013-06-22 00:41:00,65.3,59.3,30.16,ENE,62,0.0,0.0,81,0.00,,---,0.00,VWS V13.01,2013-06-22 04:41:00,
2013-06-22 00:42:00,65.2,59.2,30.16,ENE,61,0.0,0.0,81,0.00,,---,0.00,VWS V13.01,2013-06-22 04:42:00,
2013-06-22 00:46:00,65.2,59.6,30.16,ENE,62,0.0,0.0,82,0.00,,---,0.00,VWS V13.01,2013-06-22 04:46:00,
2013-06-22 00:47:00,65.1,59.5,30.16,ENE,62,0.0,0.0,82,0.00,,---,0.00,VWS V13.01,2013-06-22 04:47:00,
2013-06-22 00:52:00,65.0,59.4,30.16,ENE,62,0.0,0.0,82,0.00,,---,0.00,VWS V13.01,2013-06-22 04:52:00,
2013-06-22 00:53:00,65.0,59.4,30.16,ENE,62,0.0,0.0,82,0.00,,---,0.00,VWS V13.01,2013-06-22 04:53:00,
2013-06-22 00:57:00,64.9,59.3,30.16,ENE,61,0.0,0.0,82,0.00,,---,0.00,VWS V13.01,2013-06-22 04:57:00,
2013-06-22 00:58:00,64.8,59.2,30.16,ENE,62,0.0,0.0,82,0.00,,---,0.00,VWS V13.01,2013-06-22 04:58:00,
2013-06-22 01:02:00,64.7,59.1,30.16,ENE,61,0.0,0.0,82,0.00,,---,0.00,VWS V13.01,2013-06-22 05:02:00,
2013-06-22 01:03:00,64.7,59.1,30.16,ENE,61,0.0,0.0,82,0.00,,---,0.00,VWS V13.01,2013-06-22 05:03:00,
2013-06-22 01:07:00,64.6,59.0,30.16,ENE,62,0.0,0.0,82,0.00,,---,0.00,VWS V13.01,2013-06-22 05:07:00,
2013-06-22 01:08:00,64.6,59.0,30.16,ENE,62,0.0,0.0,82,0.00,,---,0.00,VWS V13.01,2013-06-22 05:08:00,
2013-06-22 01:13:00,64.5,59.2,30.16,ENE,62,0.0,0.0,83,0.00,,---,0.00,VWS V13.01,2013-06-22 05:13:00,
2013-06-22 01:18:00,64.4,59.1,30.16,ENE,62,0.0,0.0,83,0.00,,---,0.00,VWS V13.01,2013-06-22 05:18:00,
2013-06-22 01:19:00,64.4,59.5,30.16,ENE,62,0.0,0.0,84,0.00,,---,0.00,VWS V13.01,2013-06-22 05:19:00,
2013-06-22 01:23:00,64.3,59.4,30.16,ENE,62,0.0,0.0,84,0.00,,---,0.00,VWS V13.01,2013-06-22 05:23:00,
2013-06-22 01:24:00,64.3,59.4,30.16,ENE,62,0.0,0.0,84,0.00,,---,0.00,VWS V13.01,2013-06-22 05:24:00,
2013-06-22 01:28:00,64.3,59.7,30.16,ENE,62,0.0,0.0,85,0.00,,---,0.00,VWS V13.01,2013-06-22 05:28:00,
2013-06-22 01:29:00,64.3,59.7,30.16,ENE,62,0.0,0.0,85,0.00,,---,0.00,VWS V13.01,2013-06-22 05:29:00,
2013-06-22 01:33:00,64.2,59.6,30.16,ENE,62,0.0,0.0,85,0.00,,---,0.00,VWS V13.01,2013-06-22 05:33:00,
2013-06-22 01:34:00,64.2,59.9,30.16,ENE,62,0.0,0.0,86,0.00,,---,0.00,VWS V13.01,2013-06-22 05:34:00,
2013-06-22 01:38:00,64.2,59.9,30.16,ENE,61,0.0,0.0,86,0.00,,---,0.00,VWS V13.01,2013-06-22 05:38:00,
2013-06-22 01:39:00,64.2,59.9,30.16,ENE,62,0.0,0.0,86,0.00,,---,0.00,VWS V13.01,2013-06-22 05:39:00,
2013-06-22 01:40:00,64.2,59.9,30.16,ENE,62,0.0,0.0,86,0.00,,---,0.00,VWS V13.01,2013-06-22 05:40:00,
2013-06-22 01:43:00,64.2,60.3,30.16,ENE,62,0.0,0.0,87,0.00,,---,0.00,VWS V13.01,2013-06-22 05:43:00,
2013-06-22 01:44:00,64.2,60.3,30.16,ENE,61,0.0,0.0,87,0.00,,---,0.00,VWS V13.01,2013-06-22 05:44:00,
2013-06-22 01:45:00,64.2,60.3,30.16,ENE,61,0.0,0.0,87,0.00,,---,0.00,VWS V13.01,2013-06-22 05:45:00,
2013-06-22 01:48:00,64.3,60.3,30.16,ENE,62,0.0,0.0,87,0.00,,---,0.00,VWS V13.01,2013-06-22 05:48:00,
2013-06-22 01:49:00,64.3,60.3,30.16,ENE,61,0.0,0.0,87,0.00,,---,0.00,VWS V13.01,2013-06-22 05:49:00,
2013-06-22 01:50:00,64.3,60.7,30.16,ENE,62,0.0,0.0,88,0.00,,---,0.00,VWS V13.01,2013-06-22 05:50:00,
2013-06-22 01:54:00,64.3,60.7,30.16,ENE,62,0.0,0.0,88,0.00,,---,0.00,VWS V13.01,2013-06-22 05:54:00,
2013-06-22 01:55:00,64.3,60.7,30.16,ENE,61,0.0,0.0,88,0.00,,---,0.00,VWS V13.01,2013-06-22 05:55:00,
2013-06-22 01:59:00,64.4,60.8,30.15,ENE,62,0.0,0.0,88,0.00,,---,0.00,VWS V13.01,2013-06-22 05:59:00,
2013-06-22 02:00:00,64.4,60.8,30.15,ENE,62,0.0,0.0,88,0.00,,---,0.00,VWS V13.01,2013-06-22 06:00:00,
2013-06-22 02:04:00,64.4,60.8,30.15,ENE,62,0.0,0.0,88,0.00,,---,0.00,VWS V13.01,2013-06-22 06:04:00,
2013-06-22 02:05:00,64.4,60.8,30.16,ENE,61,0.0,0.0,88,0.00,,---,0.00,VWS V13.01,2013-06-22 06:05:00,
2013-06-22 02:09:00,64.5,60.9,30.15,ENE,61,0.0,1.0,88,0.00,,---,0.00,VWS V13.01,2013-06-22 06:09:00,
2013-06-22 02:10:00,64.5,60.9,30.15,ENE,62,0.0,1.0,88,0.00,,---,0.00,VWS V13.01,2013-06-22 06:10:00,
2013-06-22 02:14:00,64.5,60.9,30.15,ENE,62,0.0,1.0,88,0.00,,---,0.00,VWS V13.01,2013-06-22 06:14:00,
2013-06-22 02:15:00,64.5,60.9,30.15,ENE,62,0.0,1.0,88,0.00,,---,0.00,VWS V13.01,2013-06-22 06:15:00,
2013-06-22 02:19:00,64.5,60.9,30.15,ENE,62,0.0,1.0,88,0.00,,---,0.00,VWS V13.01,2013-06-22 06:19:00,
2013-06-22 02:20:00,64.6,61.0,30.15,ENE,61,0.0,1.0,88,0.00,,---,0.00,VWS V13.01,2013-06-22 06:20:00,
2013-06-22 02:24:00,64.6,61.0,30.15,ENE,61,0.0,1.0,88,0.00,,---,0.00,VWS V13.01,2013-06-22 06:24:00,
2013-06-22 02:26:00,64.6,61.3,30.15,ENE,62,0.0,1.0,89,0.00,,---,0.00,VWS V13.01,2013-06-22 06:26:00,
2013-06-22 02:29:00,64.7,61.4,30.15,ENE,62,0.0,1.0,89,0.00,,---,0.00,VWS V13.01,2013-06-22 06:29:00,
2013-06-22 02:31:00,64.7,61.4,30.15,ENE,62,0.0,1.0,89,0.00,,---,0.00,VWS V13.01,2013-06-22 06:31:00,
2013-06-22 02:34:00,64.7,61.4,30.15,ENE,61,0.0,0.0,89,0.00,,---,0.00,VWS V13.01,2013-06-22 06:34:00,
2013-06-22 02:35:00,64.7,61.4,30.15,ENE,61,0.0,0.0,89,0.00,,---,0.00,VWS V13.01,2013-06-22 06:35:00,
2013-06-22 02:36:00,64.7,61.4,30.15,ENE,62,0.0,0.0,89,0.00,,---,0.00,VWS V13.01,2013-06-22 06:36:00,
2013-06-22 02:39:00,64.8,61.5,30.15,ENE,62,0.0,0.0,89,0.00,,---,0.00,VWS V13.01,2013-06-22 06:39:00,
2013-06-22 02:40:00,64.8,61.5,30.15,ENE,62,0.0,0.0,89,0.00,,---,0.00,VWS V13.01,2013-06-22 06:40:00,
2013-06-22 02:41:00,64.8,61.5,30.15,ENE,62,0.0,0.0,89,0.00,,---,0.00,VWS V13.01,2013-06-22 06:41:00,
2013-06-22 02:44:00,64.8,61.5,30.15,ENE,62,0.0,0.0,89,0.00,,---,0.00,VWS V13.01,2013-06-22 06:44:00,
2013-06-22 02:45:00,64.8,61.5,30.15,ENE,62,0.0,0.0,89,0.00,,---,0.00,VWS V13.01,2013-06-22 06:45:00,
2013-06-22 02:46:00,64.8,61.5,30.15,ENE,62,0.0,0.0,89,0.00,,---,0.00,VWS V13.01,2013-06-22 06:46:00,
2013-06-22 02:50:00,64.9,61.6,30.15,ENE,62,0.0,0.0,89,0.00,,---,0.00,VWS V13.01,2013-06-22 06:50:00,
2013-06-22 02:51:00,64.9,61.6,30.15,ENE,61,0.0,0.0,89,0.00,,---,0.00,VWS V13.01,2013-06-22 06:51:00,
2013-06-22 02:55:00,64.9,61.6,30.15,ENE,61,0.0,0.0,89,0.00,,---,0.00,VWS V13.01,2013-06-22 06:55:00,
2013-06-22 02:56:00,65.0,61.7,30.15,ENE,62,0.0,0.0,89,0.00,,---,0.00,VWS V13.01,2013-06-22 06:56:00,
2013-06-22 02:57:00,65.0,61.7,30.15,ENE,61,0.0,0.0,89,0.00,,---,0.00,VWS V13.01,2013-06-22 06:57:00,
2013-06-22 03:00:00,65.0,61.7,30.15,ENE,62,0.0,0.0,89,0.00,,---,0.00,VWS V13.01,2013-06-22 07:00:00,
2013-06-22 03:01:00,65.0,61.7,30.15,ENE,62,0.0,0.0,89,0.00,,---,0.00,VWS V13.01,2013-06-22 07:01:00,
2013-06-22 03:02:00,65.0,61.7,30.15,ENE,62,0.0,0.0,89,0.00,,---,0.00,VWS V13.01,2013-06-22 07:02:00,
2013-06-22 03:05:00,65.1,61.8,30.15,ENE,62,0.0,0.0,89,0.00,,---,0.00,VWS V13.01,2013-06-22 07:05:00,
2013-06-22 03:06:00,65.1,61.8,30.15,ENE,62,0.0,0.0,89,0.00,,---,0.00,VWS V13.01,2013-06-22 07:06:00,
2013-06-22 03:07:00,65.1,61.8,30.15,ENE,62,0.0,0.0,89,0.00,,---,0.00,VWS V13.01,2013-06-22 07:07:00,
2013-06-22 03:11:00,65.1,62.1,30.15,ENE,61,0.0,1.0,90,0.00,,---,0.00,VWS V13.01,2013-06-22 07:11:00,
2013-06-22 03:12:00,65.2,62.2,30.15,ENE,61,0.0,1.0,90,0.00,,---,0.00,VWS V13.01,2013-06-22 07:12:00,
2013-06-22 03:16:00,65.2,62.2,30.15,ENE,62,0.0,1.0,90,0.00,,---,0.00,VWS V13.01,2013-06-22 07:16:00,
2013-06-22 03:17:00,65.2,62.2,30.15,ENE,62,0.0,1.0,90,0.00,,---,0.00,VWS V13.01,2013-06-22 07:17:00,
2013-06-22 03:21:00,65.3,62.3,30.14,ENE,62,0.0,1.0,90,0.00,,---,0.00,VWS V13.01,2013-06-22 07:21:00,
2013-06-22 03:22:00,65.3,62.3,30.14,ENE,61,0.0,1.0,90,0.00,,---,0.00,VWS V13.01,2013-06-22 07:22:00,
2013-06-22 03:26:00,65.3,62.3,30.14,ENE,62,0.0,1.0,90,0.00,,---,0.00,VWS V13.01,2013-06-22 07:26:00,
2013-06-22 03:27:00,65.3,62.3,30.14,ENE,62,0.0,1.0,90,0.00,,---,0.00,VWS V13.01,2013-06-22 07:27:00,
2013-06-22 03:32:00,65.4,62.4,30.14,ENE,62,0.0,0.0,90,0.00,,---,0.00,VWS V13.01,2013-06-22 07:32:00,
2013-06-22 03:33:00,65.4,62.4,30.14,ENE,62,0.0,2.0,90,0.00,,---,0.00,VWS V13.01,2013-06-22 07:33:00,
2013-06-22 03:37:00,65.5,62.5,30.14,ENE,62,0.0,2.0,90,0.00,,---,0.00,VWS V13.01,2013-06-22 07:37:00,
2013-06-22 03:38:00,65.5,62.5,30.15,ENE,62,0.0,2.0,90,0.00,,---,0.00,VWS V13.01,2013-06-22 07:38:00,
2013-06-22 03:42:00,65.5,62.5,30.14,ENE,62,0.0,2.0,90,0.00,,---,0.00,VWS V13.01,2013-06-22 07:42:00,
2013-06-22 03:43:00,65.5,62.5,30.14,ENE,62,0.0,2.0,90,0.00,,---,0.00,VWS V13.01,2013-06-22 07:43:00,
2013-06-22 03:47:00,65.7,63.0,30.15,ENE,61,2.0,4.0,91,0.00,,---,0.00,VWS V13.01,2013-06-22 07:47:00,
2013-06-22 03:48:00,65.7,63.0,30.15,ENE,62,0.0,4.0,91,0.00,,---,0.00,VWS V13.01,2013-06-22 07:48:00,
2013-06-22 03:52:00,65.8,63.1,30.15,NE,55,3.0,10.0,91,0.00,,---,0.00,VWS V13.01,2013-06-22 07:52:00,
2013-06-22 03:53:00,65.8,63.1,30.15,ENE,60,4.0,10.0,91,0.00,,---,0.00,VWS V13.01,2013-06-22 07:53:00,
2013-06-22 03:57:00,66.0,63.6,30.15,ENE,64,0.0,10.0,92,0.00,,---,0.00,VWS V13.01,2013-06-22 07:57:00,
2013-06-22 03:58:00,66.1,63.7,30.15,ENE,57,3.0,10.0,92,0.00,,---,0.00,VWS V13.01,2013-06-22 07:58:00,
2013-06-22 04:02:00,66.2,63.8,30.15,NE,44,2.0,2.0,92,0.00,,---,0.00,VWS V13.01,2013-06-22 08:02:00,
2013-06-22 04:03:00,66.2,63.8,30.15,NE,53,0.0,4.0,92,0.00,,---,0.00,VWS V13.01,2013-06-22 08:03:00,
2013-06-22 04:07:00,66.2,63.8,30.15,ENE,57,0.0,5.0,92,0.00,,---,0.00,VWS V13.01,2013-06-22 08:07:00,
2013-06-22 04:08:00,66.3,63.9,30.15,ENE,61,0.0,5.0,92,0.00,,---,0.00,VWS V13.01,2013-06-22 08:08:00,
2013-06-22 04:13:00,66.3,63.9,30.15,ENE,67,0.0,8.0,92,0.00,,---,0.00,VWS V13.01,2013-06-22 08:13:00,
2013-06-22 04:18:00,66.2,63.8,30.16,ENE,67,6.0,8.0,92,0.00,,---,0.00,VWS V13.01,2013-06-22 08:18:00,
2013-06-22 04:19:00,66.2,63.8,30.16,ENE,67,0.0,8.0,92,0.00,,---,0.00,VWS V13.01,2013-06-22 08:19:00,
2013-06-22 04:23:00,66.2,63.8,30.16,ENE,74,0.0,8.0,92,0.00,,---,0.00,VWS V13.01,2013-06-22 08:23:00,
2013-06-22 04:24:00,66.2,63.8,30.15,ENE,61,0.0,8.0,92,0.00,,---,0.00,VWS V13.01,2013-06-22 08:24:00,
2013-06-22 04:28:00,66.2,63.8,30.15,ENE,61,0.0,8.0,92,0.00,,---,0.00,VWS V13.01,2013-06-22 08:28:00,
2013-06-22 04:29:00,66.1,63.7,30.15,ENE,61,0.0,8.0,92,0.00,,---,0.00,VWS V13.01,2013-06-22 08:29:00,
2013-06-22 04:33:00,66.1,63.7,30.15,ENE,61,0.0,3.0,92,0.00,,---,0.00,VWS V13.01,2013-06-22 08:33:00,
2013-06-22 04:34:00,66.1,63.7,30.15,ENE,61,0.0,3.0,92,0.00,,---,0.00,VWS V13.01,2013-06-22 08:34:00,
2013-06-22 04:38:00,66.1,64.0,30.15,NE,55,0.0,5.0,93,0.00,,---,0.00,VWS V13.01,2013-06-22 08:38:00,
2013-06-22 04:39:00,66.1,64.0,30.15,NE,55,0.0,5.0,93,0.00,,---,0.00,VWS V13.01,2013-06-22 08:39:00,
2013-06-22 04:43:00,66.1,64.0,30.15,NE,55,0.0,5.0,93,0.00,,---,0.00,VWS V13.01,2013-06-22 08:43:00,
2013-06-22 04:44:00,66.1,64.0,30.15,NE,56,0.0,5.0,93,0.00,,---,0.00,VWS V13.01,2013-06-22 08:44:00,
2013-06-22 04:48:00,66.1,64.0,30.15,NE,55,0.0,5.0,93,0.00,,---,0.00,VWS V13.01,2013-06-22 08:48:00,
2013-06-22 04:49:00,66.1,64.0,30.15,NE,55,0.0,5.0,93,0.00,,---,0.00,VWS V13.01,2013-06-22 08:49:00,
2013-06-22 04:50:00,66.1,64.0,30.16,NE,55,0.0,5.0,93,0.00,,---,0.00,VWS V13.01,2013-06-22 08:50:00,
2013-06-22 04:54:00,66.1,64.0,30.16,NE,55,0.0,5.0,93,0.00,,---,0.00,VWS V13.01,2013-06-22 08:54:00,
2013-06-22 04:55:00,66.1,64.0,30.16,NE,55,0.0,5.0,93,0.00,,---,0.00,VWS V13.01,2013-06-22 08:55:00,
2013-06-22 04:59:00,66.1,64.0,30.16,NE,55,0.0,5.0,93,0.00,,---,0.00,VWS V13.01,2013-06-22 08:59:00,
2013-06-22 05:00:00,66.1,64.0,30.16,NE,55,0.0,5.0,93,0.00,,---,0.00,VWS V13.01,2013-06-22 09:00:00,
2013-06-22 05:04:00,66.1,64.0,30.16,NE,55,0.0,1.0,93,0.00,,---,0.00,VWS V13.01,2013-06-22 09:04:00,
2013-06-22 05:05:00,66.1,64.0,30.16,NE,55,0.0,1.0,93,0.00,,---,0.00,VWS V13.01,2013-06-22 09:05:00,
2013-06-22 05:09:00,66.1,64.3,30.16,NE,52,0.0,4.0,94,0.00,,---,0.00,VWS V13.01,2013-06-22 09:09:00,
2013-06-22 05:10:00,66.2,64.4,30.16,NE,52,0.0,4.0,94,0.00,,---,0.00,VWS V13.01,2013-06-22 09:10:00,
2013-06-22 05:11:00,66.1,64.3,30.16,NE,52,0.0,4.0,94,0.00,,---,0.00,VWS V13.01,2013-06-22 09:11:00,
2013-06-22 05:14:00,66.2,64.4,30.16,NE,52,0.0,4.0,94,0.00,,---,0.00,VWS V13.01,2013-06-22 09:14:00,
2013-06-22 05:15:00,66.2,64.4,30.16,NE,52,0.0,4.0,94,0.00,,---,0.00,VWS V13.01,2013-06-22 09:15:00,
2013-06-22 05:16:00,66.2,64.4,30.16,NE,52,0.0,4.0,94,0.00,,---,0.00,VWS V13.01,2013-06-22 09:16:00,
2013-06-22 05:19:00,66.2,64.4,30.16,NE,52,0.0,4.0,94,0.00,,---,0.00,VWS V13.01,2013-06-22 09:19:00,
2013-06-22 05:20:00,66.2,64.4,30.16,NE,52,0.0,4.0,94,0.00,,---,0.00,VWS V13.01,2013-06-22 09:20:00,
2013-06-22 05:21:00,66.2,64.4,30.16,NE,52,0.0,4.0,94,0.00,,---,0.00,VWS V13.01,2013-06-22 09:21:00,
2013-06-22 05:24:00,66.2,64.4,30.16,NE,52,0.0,4.0,94,0.00,,---,0.00,VWS V13.01,2013-06-22 09:24:00,
2013-06-22 05:25:00,66.2,64.4,30.16,NE,52,0.0,4.0,94,0.00,,---,0.00,VWS V13.01,2013-06-22 09:25:00,
2013-06-22 05:26:00,66.2,64.4,30.16,NE,52,1.0,4.0,94,0.00,,---,0.00,VWS V13.01,2013-06-22 09:26:00,
2013-06-22 05:29:00,66.2,64.4,30.16,NE,52,0.0,4.0,94,0.00,,---,0.00,VWS V13.01,2013-06-22 09:29:00,
2013-06-22 05:30:00,66.2,64.4,30.16,NE,52,0.0,4.0,94,0.00,,---,0.00,VWS V13.01,2013-06-22 09:30:00,
2013-06-22 05:31:00,66.2,64.4,30.16,NE,52,0.0,4.0,94,0.00,,---,0.00,VWS V13.01,2013-06-22 09:31:00,
2013-06-22 05:32:00,66.2,64.4,30.16,NE,52,1.0,1.0,94,0.00,,---,0.00,VWS V13.01,2013-06-22 09:32:00,
2013-06-22 05:34:00,66.3,64.5,30.16,NE,52,0.0,1.0,94,0.00,,---,0.00,VWS V13.01,2013-06-22 09:34:00,
2013-06-22 05:35:00,66.3,64.5,30.16,NE,52,0.0,1.0,94,0.00,,---,0.00,VWS V13.01,2013-06-22 09:35:00,
2013-06-22 05:37:00,66.3,64.5,30.16,NE,52,0.0,1.0,94,0.00,,---,0.00,VWS V13.01,2013-06-22 09:37:00,
2013-06-22 05:39:00,66.3,64.5,30.16,NE,52,0.0,1.0,94,0.00,,---,0.00,VWS V13.01,2013-06-22 09:39:00,
2013-06-22 05:40:00,66.3,64.5,30.16,NE,52,0.0,1.0,94,0.00,,---,0.00,VWS V13.01,2013-06-22 09:40:00,
2013-06-22 05:42:00,66.3,64.5,30.16,NE,52,0.0,1.0,94,0.00,,---,0.00,VWS V13.01,2013-06-22 09:42:00,
2013-06-22 05:44:00,66.3,64.5,30.16,NE,52,0.0,2.0,94,0.00,,---,0.00,VWS V13.01,2013-06-22 09:44:00,
2013-06-22 05:45:00,66.3,64.5,30.16,NE,52,0.0,2.0,94,0.00,,---,0.00,VWS V13.01,2013-06-22 09:45:00,
2013-06-22 05:47:00,66.3,64.5,30.16,NE,52,0.0,2.0,94,0.00,,---,0.00,VWS V13.01,2013-06-22 09:47:00,
2013-06-22 05:49:00,66.3,64.5,30.16,NE,52,0.0,2.0,94,0.00,,---,0.00,VWS V13.01,2013-06-22 09:49:00,
2013-06-22 05:50:00,66.3,64.5,30.16,NE,52,0.0,2.0,94,0.00,,---,0.00,VWS V13.01,2013-06-22 09:50:00,
2013-06-22 05:52:00,66.3,64.5,30.16,NE,52,0.0,2.0,94,0.00,,---,0.00,VWS V13.01,2013-06-22 09:52:00,
2013-06-22 05:54:00,66.2,64.4,30.16,NE,52,0.0,2.0,94,0.00,,---,0.00,VWS V13.01,2013-06-22 09:54:00,
2013-06-22 05:55:00,66.2,64.4,30.16,NE,52,0.0,2.0,94,0.00,,---,0.00,VWS V13.01,2013-06-22 09:55:00,
2013-06-22 05:57:00,66.2,64.4,30.16,NE,52,0.0,2.0,94,0.00,,---,0.00,VWS V13.01,2013-06-22 09:57:00,
2013-06-22 06:00:00,66.2,64.4,30.16,NE,52,0.0,2.0,94,0.00,,---,0.00,VWS V13.01,2013-06-22 10:00:00,
2013-06-22 06:02:00,66.2,64.4,30.16,NE,52,0.0,1.0,94,0.00,,---,0.00,VWS V13.01,2013-06-22 10:02:00,
2013-06-22 06:05:00,66.1,64.3,30.16,NE,52,0.0,1.0,94,0.00,,---,0.00,VWS V13.01,2013-06-22 10:05:00,
2013-06-22 06:07:00,66.1,64.3,30.16,NE,52,0.0,2.0,94,0.00,,---,0.00,VWS V13.01,2013-06-22 10:07:00,
2013-06-22 06:08:00,66.1,64.3,30.16,NE,52,0.0,2.0,94,0.00,,---,0.00,VWS V13.01,2013-06-22 10:08:00,
2013-06-22 06:10:00,66.1,64.3,30.16,NE,52,0.0,2.0,94,0.00,,---,0.00,VWS V13.01,2013-06-22 10:10:00,
2013-06-22 06:11:00,66.1,64.3,30.16,NE,52,0.0,2.0,94,0.00,,---,0.00,VWS V13.01,2013-06-22 10:11:00,
2013-06-22 06:12:00,66.1,64.3,30.16,NE,52,0.0,2.0,94,0.00,,---,0.00,VWS V13.01,2013-06-22 10:12:00,
2013-06-22 06:13:00,66.1,64.3,30.16,NE,52,0.0,2.0,94,0.00,,---,0.00,VWS V13.01,2013-06-22 10:13:00,
2013-06-22 06:15:00,66.1,64.3,30.16,NE,52,0.0,2.0,94,0.00,,---,0.00,VWS V13.01,2013-06-22 10:15:00,
2013-06-22 06:16:00,66.1,64.3,30.16,NE,52,0.0,2.0,94,0.00,,---,0.00,VWS V13.01,2013-06-22 10:16:00,
2013-06-22 06:17:00,66.1,64.3,30.16,NE,52,0.0,2.0,94,0.00,,---,0.00,VWS V13.01,2013-06-22 10:17:00,
2013-06-22 06:18:00,66.1,64.3,30.16,NE,52,0.0,2.0,94,0.00,,---,0.00,VWS V13.01,2013-06-22 10:18:00,
2013-06-22 06:20:00,66.1,64.3,30.17,NE,52,0.0,2.0,94,0.00,,---,0.00,VWS V13.01,2013-06-22 10:20:00,
2013-06-22 06:21:00,66.1,64.3,30.16,NE,52,0.0,2.0,94,0.00,,---,0.00,VWS V13.01,2013-06-22 10:21:00,
2013-06-22 06:22:00,66.1,64.3,30.17,NE,52,0.0,2.0,94,0.00,,---,0.00,VWS V13.01,2013-06-22 10:22:00,
2013-06-22 06:23:00,66.1,64.3,30.16,NE,52,0.0,2.0,94,0.00,,---,0.00,VWS V13.01,2013-06-22 10:23:00,
2013-06-22 06:25:00,66.1,64.6,30.17,NE,52,1.0,2.0,95,0.00,,---,0.00,VWS V13.01,2013-06-22 10:25:00,
2013-06-22 06:26:00,66.1,64.6,30.16,NE,52,0.0,2.0,95,0.00,,---,0.00,VWS V13.01,2013-06-22 10:26:00,
2013-06-22 06:28:00,66.2,64.7,30.17,NE,52,0.0,2.0,95,0.00,,---,0.00,VWS V13.01,2013-06-22 10:28:00,
2013-06-22 06:30:00,66.2,64.7,30.17,NE,52,0.0,2.0,95,0.00,,---,0.00,VWS V13.01,2013-06-22 10:30:00,
2013-06-22 06:31:00,66.2,64.7,30.17,NE,52,0.0,2.0,95,0.00,,---,0.00,VWS V13.01,2013-06-22 10:31:00,
2013-06-22 06:33:00,66.2,64.7,30.16,NE,52,0.0,3.0,95,0.00,,---,0.00,VWS V13.01,2013-06-22 10:33:00,
2013-06-22 06:35:00,66.2,64.7,30.16,NE,52,0.0,3.0,95,0.00,,---,0.00,VWS V13.01,2013-06-22 10:35:00,
2013-06-22 06:36:00,66.2,64.7,30.16,NE,52,0.0,3.0,95,0.00,,---,0.00,VWS V13.01,2013-06-22 10:36:00,
2013-06-22 06:38:00,66.3,64.8,30.17,NE,52,0.0,3.0,95,0.00,,---,0.00,VWS V13.01,2013-06-22 10:38:00,
2013-06-22 06:41:00,66.3,64.8,30.17,NE,52,0.0,3.0,95,0.00,,---,0.00,VWS V13.01,2013-06-22 10:41:00,
2013-06-22 06:43:00,66.3,64.8,30.17,NE,52,0.0,3.0,95,0.00,,---,0.00,VWS V13.01,2013-06-22 10:43:00,
2013-06-22 06:46:00,66.4,64.9,30.17,NE,52,0.0,3.0,95,0.00,,---,0.00,VWS V13.01,2013-06-22 10:46:00,
2013-06-22 06:48:00,66.5,65.0,30.17,NE,52,0.0,3.0,95,0.00,,---,0.00,VWS V13.01,2013-06-22 10:48:00,
2013-06-22 06:51:00,66.6,65.1,30.17,NE,52,0.0,3.0,95,0.00,,---,0.00,VWS V13.01,2013-06-22 10:51:00,
2013-06-22 06:53:00,66.6,65.1,30.17,NE,52,0.0,3.0,95,0.00,,---,0.00,VWS V13.01,2013-06-22 10:53:00,
2013-06-22 06:54:00,66.6,65.1,30.17,NE,52,0.0,3.0,95,0.00,,---,0.00,VWS V13.01,2013-06-22 10:54:00,
2013-06-22 06:56:00,66.7,65.2,30.17,NE,44,0.0,5.0,95,0.00,,---,0.00,VWS V13.01,2013-06-22 10:56:00,
2013-06-22 06:57:00,66.7,65.2,30.17,NE,44,0.0,5.0,95,0.00,,---,0.00,VWS V13.01,2013-06-22 10:57:00,
2013-06-22 06:58:00,66.7,65.2,30.17,NE,44,0.0,5.0,95,0.00,,---,0.00,VWS V13.01,2013-06-22 10:58:00,
2013-06-22 06:59:00,66.7,65.2,30.17,NE,45,0.0,5.0,95,0.00,,---,0.00,VWS V13.01,2013-06-22 10:59:00,
2013-06-22 07:01:00,66.8,65.3,30.17,NE,43,0.0,5.0,95,0.00,,---,0.00,VWS V13.01,2013-06-22 11:01:00,
2013-06-22 07:02:00,66.8,65.3,30.17,NE,42,1.0,1.0,95,0.00,,---,0.00,VWS V13.01,2013-06-22 11:02:00,
2013-06-22 07:03:00,66.8,65.3,30.17,NE,43,0.0,1.0,95,0.00,,---,0.00,VWS V13.01,2013-06-22 11:03:00,
2013-06-22 07:04:00,66.9,65.4,30.17,NE,43,0.0,1.0,95,0.00,,---,0.00,VWS V13.01,2013-06-22 11:04:00,
2013-06-22 07:07:00,67.0,65.5,30.17,NE,42,0.0,1.0,95,0.00,,---,0.00,VWS V13.01,2013-06-22 11:07:00,
2013-06-22 07:08:00,67.0,65.8,30.17,NNE,28,0.0,5.0,96,0.00,,---,0.00,VWS V13.01,2013-06-22 11:08:00,
2013-06-22 07:09:00,67.0,65.8,30.17,NNE,27,1.0,5.0,96,0.00,,---,0.00,VWS V13.01,2013-06-22 11:09:00,
2013-06-22 07:12:00,67.1,65.9,30.16,NNW,346,1.0,5.0,96,0.00,,---,0.00,VWS V13.01,2013-06-22 11:12:00,
2013-06-22 07:14:00,67.2,66.0,30.16,North,355,1.0,5.0,96,0.00,,---,0.00,VWS V13.01,2013-06-22 11:14:00,
2013-06-22 07:17:00,67.3,65.8,30.16,NNW,344,5.0,6.0,95,0.00,,---,0.00,VWS V13.01,2013-06-22 11:17:00,
2013-06-22 07:18:00,67.3,65.8,30.16,NNW,345,0.0,6.0,95,0.00,,---,0.00,VWS V13.01,2013-06-22 11:18:00,
2013-06-22 07:19:00,67.4,65.9,30.16,NNW,345,0.0,6.0,95,0.00,,---,0.00,VWS V13.01,2013-06-22 11:19:00,
2013-06-22 07:22:00,67.4,65.9,30.16,NNE,17,1.0,6.0,95,0.00,,---,0.00,VWS V13.01,2013-06-22 11:22:00,
2013-06-22 07:23:00,67.4,65.9,30.16,NNE,17,0.0,6.0,95,0.00,,---,0.00,VWS V13.01,2013-06-22 11:23:00,
2013-06-22 07:24:00,67.5,66.0,30.16,NNE,18,0.0,6.0,95,0.00,,---,0.00,VWS V13.01,2013-06-22 11:24:00,
2013-06-22 07:27:00,67.6,66.4,30.16,NNE,26,3.0,6.0,96,0.00,,---,0.00,VWS V13.01,2013-06-22 11:27:00,
2013-06-22 07:28:00,67.6,66.4,30.16,NNE,32,0.0,6.0,96,0.00,,---,0.00,VWS V13.01,2013-06-22 11:28:00,
2013-06-22 07:29:00,67.6,66.4,30.16,NNE,15,5.0,6.0,96,0.00,,---,0.00,VWS V13.01,2013-06-22 11:29:00,
2013-06-22 07:30:00,67.7,66.2,30.16,NNW,344,5.0,11.0,95,0.00,,---,0.00,VWS V13.01,2013-06-22 11:30:00,
2013-06-22 07:32:00,67.7,66.2,30.16,NNE,26,1.0,4.0,95,0.00,,---,0.00,VWS V13.01,2013-06-22 11:32:00,
2013-06-22 07:33:00,67.7,66.2,30.16,North,355,0.0,4.0,95,0.00,,---,0.00,VWS V13.01,2013-06-22 11:33:00,
2013-06-22 07:34:00,67.8,66.3,30.16,NW,323,2.0,6.0,95,0.00,,---,0.00,VWS V13.01,2013-06-22 11:34:00,
2013-06-22 07:35:00,67.8,66.3,30.16,NE,54,4.0,6.0,95,0.00,,---,0.00,VWS V13.01,2013-06-22 11:35:00,
2013-06-22 07:37:00,67.8,66.3,30.16,ENE,76,2.0,6.0,95,0.00,,---,0.00,VWS V13.01,2013-06-22 11:37:00,
2013-06-22 07:38:00,67.9,66.4,30.16,ENE,73,1.0,6.0,95,0.00,,---,0.00,VWS V13.01,2013-06-22 11:38:00,
2013-06-22 07:39:00,67.9,66.4,30.16,NNE,33,0.0,6.0,95,0.00,,---,0.00,VWS V13.01,2013-06-22 11:39:00,
2013-06-22 07:40:00,67.9,66.4,30.16,NNW,340,5.0,11.0,95,0.00,,---,0.00,VWS V13.01,2013-06-22 11:40:00,
2013-06-22 07:42:00,67.9,66.4,30.16,ENE,68,0.0,11.0,95,0.00,,---,0.00,VWS V13.01,2013-06-22 11:42:00,
2013-06-22 07:43:00,67.9,66.4,30.17,ENE,59,0.0,11.0,95,0.00,,---,0.00,VWS V13.01,2013-06-22 11:43:00,
2013-06-22 07:44:00,67.9,66.4,30.17,ENE,60,0.0,11.0,95,0.00,,---,0.00,VWS V13.01,2013-06-22 11:44:00,
2013-06-22 07:45:00,67.9,66.4,30.17,ENE,60,0.0,11.0,95,0.00,,---,0.00,VWS V13.01,2013-06-22 11:45:00,
2013-06-22 07:47:00,68.0,66.5,30.17,NE,38,0.0,11.0,95,0.00,,---,0.00,VWS V13.01,2013-06-22 11:47:00,
2013-06-22 07:48:00,68.0,66.5,30.17,ENE,58,8.0,11.0,95,0.00,,---,0.00,VWS V13.01,2013-06-22 11:48:00,
2013-06-22 07:49:00,68.0,66.5,30.17,ENE,68,6.0,11.0,95,0.00,,---,0.00,VWS V13.01,2013-06-22 11:49:00,
2013-06-22 07:51:00,68.0,66.5,30.17,East,92,4.0,11.0,95,0.00,,---,0.00,VWS V13.01,2013-06-22 11:51:00,
2013-06-22 07:52:00,68.0,66.5,30.17,NE,49,1.0,11.0,95,0.00,,---,0.00,VWS V13.01,2013-06-22 11:52:00,
2013-06-22 07:53:00,68.0,66.5,30.17,NE,55,2.0,11.0,95,0.00,,---,0.00,VWS V13.01,2013-06-22 11:53:00,
2013-06-22 07:54:00,68.0,66.5,30.17,NE,55,0.0,11.0,95,0.00,,---,0.00,VWS V13.01,2013-06-22 11:54:00,
2013-06-22 07:56:00,68.0,66.5,30.17,NE,55,0.0,11.0,95,0.00,,---,0.00,VWS V13.01,2013-06-22 11:56:00,
2013-06-22 07:57:00,68.0,66.5,30.17,NE,55,0.0,11.0,95,0.00,,---,0.00,VWS V13.01,2013-06-22 11:57:00,
2013-06-22 07:59:00,68.0,66.5,30.17,NE,55,0.0,11.0,95,0.00,,---,0.00,VWS V13.01,2013-06-22 11:59:00,
2013-06-22 08:00:00,68.0,66.5,30.17,NE,55,0.0,11.0,95,0.00,,---,0.00,VWS V13.01,2013-06-22 12:00:00,
2013-06-22 08:01:00,68.0,66.5,30.17,NE,55,0.0,11.0,95,0.00,,---,0.00,VWS V13.01,2013-06-22 12:01:00,
2013-06-22 08:03:00,68.0,66.5,30.17,ENE,74,0.0,4.0,95,0.00,,---,0.00,VWS V13.01,2013-06-22 12:03:00,
2013-06-22 08:04:00,68.0,66.5,30.17,ENE,65,0.0,4.0,95,0.00,,---,0.00,VWS V13.01,2013-06-22 12:04:00,
2013-06-22 08:05:00,68.0,66.5,30.17,ENE,65,0.0,4.0,95,0.00,,---,0.00,VWS V13.01,2013-06-22 12:05:00,
2013-06-22 08:06:00,68.1,66.6,30.17,ENE,65,0.0,4.0,95,0.00,,---,0.00,VWS V13.01,2013-06-22 12:06:00,
2013-06-22 08:08:00,68.1,66.3,30.17,NE,40,5.0,6.0,94,0.00,,---,0.00,VWS V13.01,2013-06-22 12:08:00,
2013-06-22 08:09:00,68.1,66.3,30.17,NE,44,4.0,6.0,94,0.00,,---,0.00,VWS V13.01,2013-06-22 12:09:00,
2013-06-22 08:10:00,68.1,66.3,30.18,ENE,57,0.0,9.0,94,0.00,,---,0.00,VWS V13.01,2013-06-22 12:10:00,
2013-06-22 08:11:00,68.1,66.3,30.18,ENE,59,1.0,9.0,94,0.00,,---,0.00,VWS V13.01,2013-06-22 12:11:00,
2013-06-22 08:13:00,68.1,66.6,30.18,NE,55,0.0,10.0,95,0.00,,---,0.00,VWS V13.01,2013-06-22 12:13:00,
2013-06-22 08:14:00,68.1,66.3,30.18,NE,48,0.0,10.0,94,0.00,,---,0.00,VWS V13.01,2013-06-22 12:14:00,
2013-06-22 08:15:00,68.1,66.3,30.18,NE,49,0.0,10.0,94,0.00,,---,0.00,VWS V13.01,2013-06-22 12:15:00,
2013-06-22 08:16:00,68.1,66.3,30.18,NNE,30,0.0,12.0,94,0.00,,---,0.00,VWS V13.01,2013-06-22 12:16:00,
2013-06-22 08:18:00,68.1,66.3,30.17,ENE,59,3.0,13.0,94,0.00,,---,0.00,VWS V13.01,2013-06-22 12:18:00,
2013-06-22 08:19:00,68.1,66.3,30.17,ENE,64,1.0,13.0,94,0.00,,---,0.00,VWS V13.01,2013-06-22 12:19:00,
2013-06-22 08:20:00,68.1,66.3,30.17,ENE,64,0.0,13.0,94,0.00,,---,0.00,VWS V13.01,2013-06-22 12:20:00,
2013-06-22 08:21:00,68.1,66.3,30.17,ENE,67,0.0,13.0,94,0.00,,---,0.00,VWS V13.01,2013-06-22 12:21:00,
2013-06-22 08:23:00,68.1,66.3,30.17,ENE,65,0.0,13.0,94,0.00,,---,0.00,VWS V13.01,2013-06-22 12:23:00,
2013-06-22 08:25:00,68.1,66.3,30.17,NE,44,0.0,13.0,94,0.00,,---,0.00,VWS V13.01,2013-06-22 12:25:00,
2013-06-22 08:26:00,68.1,66.3,30.17,NE,53,6.0,13.0,94,0.00,,---,0.00,VWS V13.01,2013-06-22 12:26:00,
2013-06-22 08:28:00,68.1,66.3,30.17,NNE,32,0.0,13.0,94,0.00,,---,0.00,VWS V13.01,2013-06-22 12:28:00,
2013-06-22 08:30:00,68.1,66.3,30.17,ENE,69,4.0,13.0,94,0.00,,---,0.00,VWS V13.01,2013-06-22 12:30:00,
2013-06-22 08:31:00,68.1,66.3,30.17,ENE,65,0.0,13.0,94,0.00,,---,0.00,VWS V13.01,2013-06-22 12:31:00,
2013-06-22 08:33:00,68.2,66.4,30.17,ENE,63,3.0,5.0,94,0.00,,---,0.00,VWS V13.01,2013-06-22 12:33:00,
2013-06-22 08:34:00,68.2,66.4,30.17,NE,53,3.0,6.0,94,0.00,,---,0.00,VWS V13.01,2013-06-22 12:34:00,
2013-06-22 08:35:00,68.2,66.4,30.17,NE,53,0.0,6.0,94,0.00,,---,0.00,VWS V13.01,2013-06-22 12:35:00,
2013-06-22 08:36:00,68.2,66.4,30.17,NE,53,0.0,6.0,94,0.00,,---,0.00,VWS V13.01,2013-06-22 12:36:00,
2013-06-22 08:37:00,68.3,66.5,30.17,North,10,0.0,6.0,94,0.00,,---,0.00,VWS V13.01,2013-06-22 12:37:00,
2013-06-22 08:39:00,68.3,66.5,30.17,NNE,15,0.0,6.0,94,0.00,,---,0.00,VWS V13.01,2013-06-22 12:39:00,
2013-06-22 08:40:00,68.3,66.5,30.17,NNE,25,4.0,7.0,94,0.00,,---,0.00,VWS V13.01,2013-06-22 12:40:00,
2013-06-22 08:41:00,68.3,66.5,30.17,NE,48,0.0,7.0,94,0.00,,---,0.00,VWS V13.01,2013-06-22 12:41:00,
2013-06-22 08:42:00,68.4,66.6,30.17,NE,52,0.0,7.0,94,0.00,,---,0.00,VWS V13.01,2013-06-22 12:42:00,
2013-06-22 08:44:00,68.4,66.3,30.17,NE,56,0.0,7.0,93,0.00,,---,0.00,VWS V13.01,2013-06-22 12:44:00,
2013-06-22 08:45:00,68.4,66.3,30.17,ENE,57,0.0,7.0,93,0.00,,---,0.00,VWS V13.01,2013-06-22 12:45:00,
2013-06-22 08:46:00,68.4,66.3,30.17,ENE,64,0.0,7.0,93,0.00,,---,0.00,VWS V13.01,2013-06-22 12:46:00,
2013-06-22 08:47:00,68.4,66.3,30.17,ENE,60,0.0,7.0,93,0.00,,---,0.00,VWS V13.01,2013-06-22 12:47:00,
2013-06-22 08:49:00,68.5,66.4,30.17,ENE,59,0.0,7.0,93,0.00,,---,0.00,VWS V13.01,2013-06-22 12:49:00,
2013-06-22 08:50:00,68.5,66.4,30.17,ENE,59,0.0,7.0,93,0.00,,---,0.00,VWS V13.01,2013-06-22 12:50:00,
2013-06-22 08:51:00,68.5,66.4,30.17,NE,38,4.0,7.0,93,0.00,,---,0.00,VWS V13.01,2013-06-22 12:51:00,
2013-06-22 08:52:00,68.5,66.4,30.17,NE,37,2.0,7.0,93,0.00,,---,0.00,VWS V13.01,2013-06-22 12:52:00,
2013-06-22 08:54:00,68.6,66.5,30.17,NE,56,3.0,7.0,93,0.00,,---,0.00,VWS V13.01,2013-06-22 12:54:00,
2013-06-22 08:55:00,68.6,66.5,30.17,NE,41,0.0,7.0,93,0.00,,---,0.00,VWS V13.01,2013-06-22 12:55:00,
2013-06-22 08:57:00,68.7,66.6,30.17,NE,44,0.0,7.0,93,0.00,,---,0.00,VWS V13.01,2013-06-22 12:57:00,
2013-06-22 08:59:00,68.7,66.6,30.16,NE,49,1.0,7.0,93,0.00,,---,0.00,VWS V13.01,2013-06-22 12:59:00,
2013-06-22 09:00:00,68.8,66.7,30.17,NE,41,2.0,7.0,93,0.00,,---,0.00,VWS V13.01,2013-06-22 13:00:00,
2013-06-22 09:02:00,68.8,66.7,30.16,North,9,0.0,5.0,93,0.00,,---,0.00,VWS V13.01,2013-06-22 13:02:00,
2013-06-22 09:04:00,68.8,66.7,30.17,NNE,18,1.0,5.0,93,0.00,,---,0.00,VWS V13.01,2013-06-22 13:04:00,
2013-06-22 09:05:00,68.8,66.7,30.17,NE,40,0.0,7.0,93,0.00,,---,0.00,VWS V13.01,2013-06-22 13:05:00,
2013-06-22 09:06:00,68.9,66.8,30.17,NE,40,0.0,7.0,93,0.00,,---,0.00,VWS V13.01,2013-06-22 13:06:00,
2013-06-22 09:07:00,68.9,66.8,30.17,NNE,19,4.0,7.0,93,0.00,,---,0.00,VWS V13.01,2013-06-22 13:07:00,
2013-06-22 09:09:00,68.9,66.8,30.17,NE,41,0.0,7.0,93,0.00,,---,0.00,VWS V13.01,2013-06-22 13:09:00,
2013-06-22 09:10:00,69.0,66.9,30.17,NE,41,2.0,7.0,93,0.00,,---,0.00,VWS V13.01,2013-06-22 13:10:00,
2013-06-22 09:11:00,69.0,66.9,30.17,NE,40,1.0,7.0,93,0.00,,---,0.00,VWS V13.01,2013-06-22 13:11:00,
2013-06-22 09:12:00,69.0,66.9,30.17,NNE,24,0.0,7.0,93,0.00,,---,0.00,VWS V13.01,2013-06-22 13:12:00,
2013-06-22 09:14:00,69.0,66.9,30.17,NNE,24,2.0,7.0,93,0.00,,---,0.00,VWS V13.01,2013-06-22 13:14:00,
2013-06-22 09:15:00,69.1,67.0,30.17,NNE,25,0.0,7.0,93,0.00,,---,0.00,VWS V13.01,2013-06-22 13:15:00,
2013-06-22 09:16:00,69.1,67.0,30.17,NNE,26,0.0,7.0,93,0.00,,---,0.00,VWS V13.01,2013-06-22 13:16:00,
2013-06-22 09:17:00,69.1,67.0,30.17,NNE,26,0.0,7.0,93,0.00,,---,0.00,VWS V13.01,2013-06-22 13:17:00,
2013-06-22 09:18:00,69.1,67.0,30.17,NNE,26,0.0,7.0,93,0.00,,---,0.00,VWS V13.01,2013-06-22 13:18:00,
2013-06-22 09:20:00,69.2,67.1,30.17,NNE,26,0.0,7.0,93,0.00,,---,0.00,VWS V13.01,2013-06-22 13:20:00,
2013-06-22 09:21:00,69.2,67.1,30.17,NNE,26,0.0,7.0,93,0.00,,---,0.00,VWS V13.01,2013-06-22 13:21:00,
2013-06-22 09:22:00,69.3,67.2,30.17,NNE,22,0.0,7.0,93,0.00,,---,0.00,VWS V13.01,2013-06-22 13:22:00,
2013-06-22 09:23:00,69.3,67.2,30.17,NNE,22,0.0,7.0,93,0.00,,---,0.00,VWS V13.01,2013-06-22 13:23:00,
2013-06-22 09:25:00,69.4,67.3,30.17,NNE,17,0.0,7.0,93,0.00,,---,0.00,VWS V13.01,2013-06-22 13:25:00,
2013-06-22 09:26:00,69.4,67.3,30.17,NNE,17,1.0,7.0,93,0.00,,---,0.00,VWS V13.01,2013-06-22 13:26:00,
2013-06-22 09:28:00,69.4,67.3,30.17,NNW,341,5.0,7.0,93,0.00,,---,0.00,VWS V13.01,2013-06-22 13:28:00,
2013-06-22 09:30:00,69.6,67.5,30.17,North,350,0.0,7.0,93,0.00,,---,0.00,VWS V13.01,2013-06-22 13:30:00,
2013-06-22 09:31:00,69.6,67.5,30.17,North,349,0.0,7.0,93,0.00,,---,0.00,VWS V13.01,2013-06-22 13:31:00,
2013-06-22 09:33:00,69.7,67.6,30.17,North,349,0.0,0.0,93,0.00,,---,0.00,VWS V13.01,2013-06-22 13:33:00,
2013-06-22 09:35:00,69.9,67.5,30.16,North,349,0.0,5.0,92,0.00,,---,0.00,VWS V13.01,2013-06-22 13:35:00,
2013-06-22 09:36:00,69.9,67.5,30.16,North,350,0.0,5.0,92,0.00,,---,0.00,VWS V13.01,2013-06-22 13:36:00,
2013-06-22 09:38:00,70.0,67.9,30.16,North,350,4.0,5.0,93,0.00,,---,0.00,VWS V13.01,2013-06-22 13:38:00,
2013-06-22 09:40:00,70.1,67.7,30.16,North,11,0.0,6.0,92,0.00,,---,0.00,VWS V13.01,2013-06-22 13:40:00,
2013-06-22 09:41:00,70.2,67.8,30.16,NNW,346,2.0,6.0,92,0.00,,---,0.00,VWS V13.01,2013-06-22 13:41:00,
2013-06-22 09:43:00,70.2,67.8,30.16,NNW,338,0.0,6.0,92,0.00,,---,0.00,VWS V13.01,2013-06-22 13:43:00,
2013-06-22 09:44:00,70.3,67.9,30.16,NNW,338,0.0,6.0,92,0.00,,---,0.00,VWS V13.01,2013-06-22 13:44:00,
2013-06-22 09:45:00,70.5,68.1,30.16,North,5,0.0,6.0,92,0.00,,---,0.00,VWS V13.01,2013-06-22 13:45:00,
2013-06-22 09:46:00,70.6,68.2,30.16,North,360,0.0,6.0,92,0.00,,---,0.00,VWS V13.01,2013-06-22 13:46:00,
2013-06-22 09:48:00,70.7,67.9,30.16,North,5,0.0,6.0,91,0.00,,---,0.00,VWS V13.01,2013-06-22 13:48:00,
2013-06-22 09:49:00,70.8,68.1,30.16,North,360,3.0,6.0,91,0.00,,---,0.00,VWS V13.01,2013-06-22 13:49:00,
2013-06-22 09:50:00,70.9,68.2,30.16,North,360,0.0,6.0,91,0.00,,---,0.00,VWS V13.01,2013-06-22 13:50:00,
2013-06-22 09:51:00,71.0,68.2,30.16,North,360,0.0,6.0,91,0.00,,---,0.00,VWS V13.01,2013-06-22 13:51:00,
2013-06-22 09:53:00,71.2,68.4,30.16,North,360,0.0,6.0,91,0.00,,---,0.00,VWS V13.01,2013-06-22 13:53:00,
2013-06-22 09:54:00,71.3,68.5,30.16,North,360,0.0,6.0,91,0.00,,---,0.00,VWS V13.01,2013-06-22 13:54:00,
2013-06-22 09:56:00,71.5,68.4,30.16,North,360,0.0,6.0,90,0.00,,---,0.00,VWS V13.01,2013-06-22 13:56:00,
2013-06-22 09:58:00,71.7,68.6,30.16,North,360,0.0,6.0,90,0.00,,---,0.00,VWS V13.01,2013-06-22 13:58:00,
2013-06-22 09:59:00,71.7,68.6,30.16,North,360,0.0,6.0,90,0.00,,---,0.00,VWS V13.01,2013-06-22 13:59:00,
2013-06-22 10:01:00,71.9,68.8,30.16,North,5,1.0,6.0,90,0.00,,---,0.00,VWS V13.01,2013-06-22 14:01:00,
2013-06-22 10:02:00,72.0,68.6,30.16,NNE,25,5.0,5.0,89,0.00,,---,0.00,VWS V13.01,2013-06-22 14:02:00,
2013-06-22 10:03:00,72.1,68.7,30.16,NNE,26,0.0,5.0,89,0.00,,---,0.00,VWS V13.01,2013-06-22 14:03:00,
2013-06-22 10:04:00,72.1,68.7,30.16,NNE,26,0.0,5.0,89,0.00,,---,0.00,VWS V13.01,2013-06-22 14:04:00,
2013-06-22 10:06:00,72.2,68.4,30.16,NNE,23,1.0,5.0,88,0.00,,---,0.00,VWS V13.01,2013-06-22 14:06:00,
2013-06-22 10:07:00,72.3,68.6,30.16,North,360,3.0,6.0,88,0.00,,---,0.00,VWS V13.01,2013-06-22 14:07:00,
2013-06-22 10:09:00,72.4,68.7,30.16,North,360,1.0,6.0,88,0.00,,---,0.00,VWS V13.01,2013-06-22 14:09:00,
2013-06-22 10:11:00,72.6,68.5,30.16,NNW,344,0.0,7.0,87,0.00,,---,0.00,VWS V13.01,2013-06-22 14:11:00,
2013-06-22 10:12:00,72.5,68.4,30.16,NNW,344,0.0,7.0,87,0.00,,---,0.00,VWS V13.01,2013-06-22 14:12:00,
2013-06-22 10:14:00,72.7,68.6,30.16,NNW,342,3.0,7.0,87,0.00,,---,0.00,VWS V13.01,2013-06-22 14:14:00,
2013-06-22 10:17:00,72.8,68.7,30.16,NNW,344,0.0,7.0,87,0.00,,---,0.00,VWS V13.01,2013-06-22 14:17:00,
2013-06-22 10:19:00,72.9,68.8,30.16,NNW,345,0.0,7.0,87,0.00,,---,0.00,VWS V13.01,2013-06-22 14:19:00,
2013-06-22 10:22:00,72.9,68.5,30.16,NNW,345,0.0,7.0,86,0.00,,---,0.00,VWS V13.01,2013-06-22 14:22:00,
2013-06-22 10:23:00,72.9,68.5,30.16,NNW,345,0.0,7.0,86,0.00,,---,0.00,VWS V13.01,2013-06-22 14:23:00,
2013-06-22 10:24:00,73.0,68.6,30.16,NNW,345,1.0,7.0,86,0.00,,---,0.00,VWS V13.01,2013-06-22 14:24:00,
2013-06-22 10:27:00,73.0,68.6,30.16,North,360,3.0,7.0,86,0.00,,---,0.00,VWS V13.01,2013-06-22 14:27:00,
2013-06-22 10:28:00,73.0,68.6,30.16,North,360,3.0,7.0,86,0.00,,---,0.00,VWS V13.01,2013-06-22 14:28:00,
2013-06-22 10:29:00,73.0,68.6,30.16,NE,53,0.0,7.0,86,0.00,,---,0.00,VWS V13.01,2013-06-22 14:29:00,
2013-06-22 10:30:00,73.0,68.6,30.16,NE,53,0.0,7.0,86,0.00,,---,0.00,VWS V13.01,2013-06-22 14:30:00,
2013-06-22 10:32:00,73.1,68.7,30.16,NE,52,2.0,2.0,86,0.00,,---,0.00,VWS V13.01,2013-06-22 14:32:00,
2013-06-22 10:33:00,73.0,68.6,30.16,NE,34,1.0,4.0,86,0.00,,---,0.00,VWS V13.01,2013-06-22 14:33:00,
2013-06-22 10:34:00,73.0,68.6,30.16,NE,34,0.0,4.0,86,0.00,,---,0.00,VWS V13.01,2013-06-22 14:34:00,
2013-06-22 10:35:00,73.0,68.6,30.16,NE,34,0.0,4.0,86,0.00,,---,0.00,VWS V13.01,2013-06-22 14:35:00,
2013-06-22 10:37:00,73.0,68.6,30.16,NNE,27,3.0,4.0,86,0.00,,---,0.00,VWS V13.01,2013-06-22 14:37:00,
2013-06-22 10:38:00,73.0,68.6,30.16,NNE,27,0.0,4.0,86,0.00,,---,0.00,VWS V13.01,2013-06-22 14:38:00,
2013-06-22 10:40:00,73.0,68.6,30.16,NNE,22,3.0,4.0,86,0.00,,---,0.00,VWS V13.01,2013-06-22 14:40:00,
2013-06-22 10:42:00,73.0,68.6,30.16,NNE,24,0.0,4.0,86,0.00,,---,0.00,VWS V13.01,2013-06-22 14:42:00,
2013-06-22 10:43:00,73.0,68.6,30.16,NNE,12,2.0,5.0,86,0.00,,---,0.00,VWS V13.01,2013-06-22 14:43:00,
2013-06-22 10:45:00,72.9,68.5,30.16,North,5,2.0,5.0,86,0.00,,---,0.00,VWS V13.01,2013-06-22 14:45:00,
2013-06-22 10:46:00,72.9,68.5,30.16,North,5,0.0,5.0,86,0.00,,---,0.00,VWS V13.01,2013-06-22 14:46:00,
2013-06-22 10:47:00,72.9,68.5,30.16,North,5,0.0,5.0,86,0.00,,---,0.00,VWS V13.01,2013-06-22 14:47:00,
2013-06-22 10:48:00,72.9,68.5,30.16,NNE,19,2.0,5.0,86,0.00,,---,0.00,VWS V13.01,2013-06-22 14:48:00,
2013-06-22 10:51:00,72.8,68.4,30.16,NE,49,0.0,5.0,86,0.00,,---,0.00,VWS V13.01,2013-06-22 14:51:00,
2013-06-22 10:52:00,72.8,68.4,30.16,NE,40,0.0,5.0,86,0.00,,---,0.00,VWS V13.01,2013-06-22 14:52:00,
2013-06-22 10:53:00,72.8,68.4,30.17,NNE,16,0.0,5.0,86,0.00,,---,0.00,VWS V13.01,2013-06-22 14:53:00,
2013-06-22 10:56:00,72.8,68.7,30.17,NNE,16,0.0,5.0,87,0.00,,---,0.00,VWS V13.01,2013-06-22 14:56:00,
2013-06-22 10:57:00,72.9,68.8,30.17,NNE,12,0.0,6.0,87,0.00,,---,0.00,VWS V13.01,2013-06-22 14:57:00,
2013-06-22 10:58:00,72.8,68.7,30.17,ENE,70,4.0,6.0,87,0.00,,---,0.00,VWS V13.01,2013-06-22 14:58:00,
2013-06-22 11:01:00,72.9,68.8,30.17,North,350,1.0,6.0,87,0.00,,---,0.00,VWS V13.01,2013-06-22 15:01:00,
2013-06-22 11:02:00,72.9,68.8,30.17,North,355,0.0,2.0,87,0.00,,---,0.00,VWS V13.01,2013-06-22 15:02:00,
2013-06-22 11:03:00,72.9,68.8,30.17,North,355,0.0,2.0,87,0.00,,---,0.00,VWS V13.01,2013-06-22 15:03:00,
2013-06-22 11:04:00,72.9,68.8,30.17,North,355,0.0,2.0,87,0.00,,---,0.00,VWS V13.01,2013-06-22 15:04:00,
2013-06-22 11:06:00,72.9,68.8,30.17,North,355,0.0,2.0,87,0.00,,---,0.00,VWS V13.01,2013-06-22 15:06:00,
2013-06-22 11:07:00,72.9,68.8,30.17,North,9,4.0,4.0,87,0.00,,---,0.00,VWS V13.01,2013-06-22 15:07:00,
2013-06-22 11:08:00,73.0,68.9,30.17,North,9,0.0,4.0,87,0.00,,---,0.00,VWS V13.01,2013-06-22 15:08:00,
2013-06-22 11:09:00,73.0,68.9,30.17,North,9,1.0,4.0,87,0.00,,---,0.00,VWS V13.01,2013-06-22 15:09:00,
2013-06-22 11:11:00,73.0,68.9,30.17,North,9,3.0,4.0,87,0.00,,---,0.00,VWS V13.01,2013-06-22 15:11:00,
2013-06-22 11:12:00,73.1,69.0,30.17,North,360,0.0,4.0,87,0.00,,---,0.00,VWS V13.01,2013-06-22 15:12:00,
2013-06-22 11:13:00,73.1,69.0,30.17,North,360,0.0,4.0,87,0.00,,---,0.00,VWS V13.01,2013-06-22 15:13:00,
2013-06-22 11:14:00,73.1,69.0,30.17,North,360,0.0,4.0,87,0.00,,---,0.00,VWS V13.01,2013-06-22 15:14:00,
2013-06-22 11:16:00,73.2,69.1,30.17,ENE,63,0.0,5.0,87,0.00,,---,0.00,VWS V13.01,2013-06-22 15:16:00,
2013-06-22 11:17:00,73.2,69.1,30.17,ENE,63,0.0,5.0,87,0.00,,---,0.00,VWS V13.01,2013-06-22 15:17:00,
2013-06-22 11:18:00,73.2,69.1,30.17,NNE,22,4.0,5.0,87,0.00,,---,0.00,VWS V13.01,2013-06-22 15:18:00,
2013-06-22 11:19:00,73.2,69.1,30.17,NNE,16,0.0,5.0,87,0.00,,---,0.00,VWS V13.01,2013-06-22 15:19:00,
2013-06-22 11:22:00,73.3,69.2,30.17,North,5,0.0,5.0,87,0.00,,---,0.00,VWS V13.01,2013-06-22 15:22:00,
2013-06-22 11:23:00,73.3,69.2,30.17,North,5,0.0,5.0,87,0.00,,---,0.00,VWS V13.01,2013-06-22 15:23:00,
2013-06-22 11:24:00,73.3,68.9,30.17,North,5,0.0,5.0,86,0.00,,---,0.00,VWS V13.01,2013-06-22 15:24:00,
2013-06-22 11:27:00,73.4,69.3,30.17,NE,52,0.0,5.0,87,0.00,,---,0.00,VWS V13.01,2013-06-22 15:27:00,
2013-06-22 11:28:00,73.4,69.0,30.17,North,349,6.0,8.0,86,0.00,,---,0.00,VWS V13.01,2013-06-22 15:28:00,
2013-06-22 11:29:00,73.4,69.0,30.17,North,5,0.0,8.0,86,0.00,,---,0.00,VWS V13.01,2013-06-22 15:29:00,
2013-06-22 11:32:00,73.4,69.0,30.17,North,355,1.0,1.0,86,0.00,,---,0.00,VWS V13.01,2013-06-22 15:32:00,
2013-06-22 11:33:00,73.4,69.0,30.17,North,360,1.0,6.0,86,0.00,,---,0.00,VWS V13.01,2013-06-22 15:33:00,
2013-06-22 11:34:00,73.3,68.9,30.17,North,5,0.0,6.0,86,0.00,,---,0.00,VWS V13.01,2013-06-22 15:34:00,
2013-06-22 11:37:00,73.4,69.0,30.17,North,5,0.0,6.0,86,0.00,,---,0.00,VWS V13.01,2013-06-22 15:37:00,
2013-06-22 11:38:00,73.4,69.0,30.17,North,5,0.0,6.0,86,0.00,,---,0.00,VWS V13.01,2013-06-22 15:38:00,
2013-06-22 11:39:00,73.4,69.0,30.17,North,5,0.0,6.0,86,0.00,,---,0.00,VWS V13.01,2013-06-22 15:39:00,
2013-06-22 11:42:00,73.6,69.5,30.17,NE,46,4.0,6.0,87,0.00,,---,0.00,VWS V13.01,2013-06-22 15:42:00,
2013-06-22 11:43:00,73.7,69.6,30.17,NE,42,0.0,6.0,87,0.00,,---,0.00,VWS V13.01,2013-06-22 15:43:00,
2013-06-22 11:44:00,73.7,69.6,30.17,NE,42,1.0,6.0,87,0.00,,---,0.00,VWS V13.01,2013-06-22 15:44:00,
2013-06-22 11:45:00,73.7,69.6,30.16,NE,42,0.0,6.0,87,0.00,,---,0.00,VWS V13.01,2013-06-22 15:45:00,
2013-06-22 11:47:00,73.8,69.7,30.16,NE,51,4.0,6.0,87,0.00,,---,0.00,VWS V13.01,2013-06-22 15:47:00,
2013-06-22 11:48:00,73.9,69.8,30.16,NE,55,0.0,6.0,87,0.00,,---,0.00,VWS V13.01,2013-06-22 15:48:00,
2013-06-22 11:49:00,74.0,69.9,30.16,NE,55,0.0,6.0,87,0.00,,---,0.00,VWS V13.01,2013-06-22 15:49:00,
2013-06-22 11:50:00,74.0,69.9,30.16,NE,55,0.0,6.0,87,0.00,,---,0.00,VWS V13.01,2013-06-22 15:50:00,
2013-06-22 11:52:00,74.3,70.2,30.16,ENE,57,5.0,6.0,87,0.00,,---,0.00,VWS V13.01,2013-06-22 15:52:00,
2013-06-22 11:53:00,74.6,70.5,30.16,ENE,77,0.0,6.0,87,0.00,,---,0.00,VWS V13.01,2013-06-22 15:53:00,
2013-06-22 11:54:00,74.8,70.7,30.16,NNW,342,3.0,6.0,87,0.00,,---,0.00,VWS V13.01,2013-06-22 15:54:00,
2013-06-22 11:55:00,74.8,70.7,30.16,NNW,342,0.0,6.0,87,0.00,,---,0.00,VWS V13.01,2013-06-22 15:55:00,
2013-06-22 11:57:00,75.3,71.2,30.16,NNW,329,0.0,6.0,87,0.00,,---,0.00,VWS V13.01,2013-06-22 15:57:00,
2013-06-22 11:59:00,75.6,71.5,30.16,NE,53,4.0,6.0,87,0.00,,---,0.00,VWS V13.01,2013-06-22 15:59:00,
2013-06-22 12:00:00,75.8,71.3,30.16,ENE,69,5.0,7.0,86,0.00,,---,0.00,VWS V13.01,2013-06-22 16:00:00,
2013-06-22 12:02:00,76.3,71.5,30.16,ENE,68,4.0,5.0,85,0.00,,---,0.00,VWS V13.01,2013-06-22 16:02:00,
2013-06-22 12:04:00,76.5,71.0,30.16,ENE,60,0.0,5.0,83,0.00,,---,0.00,VWS V13.01,2013-06-22 16:04:00,
2013-06-22 12:05:00,76.6,71.1,30.16,North,355,5.0,5.0,83,0.00,,---,0.00,VWS V13.01,2013-06-22 16:05:00,
2013-06-22 12:07:00,76.7,70.8,30.16,NNW,342,0.0,5.0,82,0.00,,---,0.00,VWS V13.01,2013-06-22 16:07:00,
2013-06-22 12:09:00,76.9,71.0,30.16,NE,40,1.0,6.0,82,0.00,,---,0.00,VWS V13.01,2013-06-22 16:09:00,
2013-06-22 12:10:00,76.9,71.0,30.16,NE,56,5.0,6.0,82,0.00,,---,0.00,VWS V13.01,2013-06-22 16:10:00,
2013-06-22 12:13:00,77.1,70.8,30.15,ENE,69,3.0,9.0,81,0.00,,---,0.00,VWS V13.01,2013-06-22 16:13:00,
2013-06-22 12:14:00,77.2,70.6,30.15,NNE,22,0.0,9.0,80,0.00,,---,0.00,VWS V13.01,2013-06-22 16:14:00,
2013-06-22 12:15:00,77.2,70.6,30.15,NNE,22,0.0,9.0,80,0.00,,---,0.00,VWS V13.01,2013-06-22 16:15:00,
2013-06-22 12:16:00,77.2,70.6,30.15,NE,34,0.0,9.0,80,0.00,,---,0.00,VWS V13.01,2013-06-22 16:16:00,
2013-06-22 12:18:00,77.3,71.0,30.16,NE,48,5.0,9.0,81,0.00,,---,0.00,VWS V13.01,2013-06-22 16:18:00,
2013-06-22 12:20:00,77.3,70.7,30.16,ENE,59,0.0,9.0,80,0.00,,---,0.00,VWS V13.01,2013-06-22 16:20:00,
2013-06-22 12:21:00,77.4,70.8,30.16,ENE,59,0.0,9.0,80,0.00,,---,0.00,VWS V13.01,2013-06-22 16:21:00,
2013-06-22 12:23:00,77.6,71.7,30.16,ENE,64,0.0,9.0,82,0.00,,---,0.00,VWS V13.01,2013-06-22 16:23:00,
2013-06-22 12:25:00,77.8,71.5,30.16,ENE,58,0.0,9.0,81,0.00,,---,0.00,VWS V13.01,2013-06-22 16:25:00,
2013-06-22 12:26:00,77.9,71.6,30.16,ENE,65,0.0,9.0,81,0.00,,---,0.00,VWS V13.01,2013-06-22 16:26:00,
2013-06-22 12:28:00,78.1,71.4,30.16,ENE,57,0.0,9.0,80,0.00,,---,0.00,VWS V13.01,2013-06-22 16:28:00,
2013-06-22 12:30:00,78.4,72.4,30.16,ENE,62,0.0,9.0,82,0.00,,---,0.00,VWS V13.01,2013-06-22 16:30:00,
2013-06-22 12:31:00,78.6,72.3,30.16,ENE,62,1.0,9.0,81,0.00,,---,0.00,VWS V13.01,2013-06-22 16:31:00,
2013-06-22 12:33:00,78.9,72.6,30.16,ENE,78,0.0,4.0,81,0.00,,---,0.00,VWS V13.01,2013-06-22 16:33:00,
2013-06-22 12:35:00,79.3,72.6,30.16,ENE,57,0.0,5.0,80,0.00,,---,0.00,VWS V13.01,2013-06-22 16:35:00,
2013-06-22 12:36:00,79.4,72.3,30.15,North,5,0.0,5.0,79,0.00,,---,0.00,VWS V13.01,2013-06-22 16:36:00,
2013-06-22 12:38:00,79.7,71.9,30.15,NNE,26,3.0,7.0,77,0.00,,---,0.00,VWS V13.01,2013-06-22 16:38:00,
2013-06-22 12:40:00,80.1,72.2,30.15,NE,49,0.0,7.0,77,0.00,,---,0.00,VWS V13.01,2013-06-22 16:40:00,
2013-06-22 12:41:00,80.1,71.9,30.15,NE,56,0.0,7.0,76,0.00,,---,0.00,VWS V13.01,2013-06-22 16:41:00,
2013-06-22 12:43:00,80.3,72.1,30.15,NE,56,0.0,7.0,76,0.00,,---,0.00,VWS V13.01,2013-06-22 16:43:00,
2013-06-22 12:45:00,80.5,72.2,30.15,NE,37,6.0,7.0,76,0.00,,---,0.00,VWS V13.01,2013-06-22 16:45:00,
2013-06-22 12:46:00,80.6,71.9,30.15,NNE,25,5.0,7.0,75,0.00,,---,0.00,VWS V13.01,2013-06-22 16:46:00,
2013-06-22 12:48:00,80.7,71.7,30.15,NNE,24,0.0,7.0,74,0.00,,---,0.00,VWS V13.01,2013-06-22 16:48:00,
2013-06-22 12:50:00,80.9,71.8,30.15,NE,55,1.0,9.0,74,0.00,,---,0.00,VWS V13.01,2013-06-22 16:50:00,
2013-06-22 12:51:00,80.9,71.8,30.15,NE,49,4.0,9.0,74,0.00,,---,0.00,VWS V13.01,2013-06-22 16:51:00,
2013-06-22 12:53:00,81.1,72.0,30.15,ENE,57,6.0,10.0,74,0.00,,---,0.00,VWS V13.01,2013-06-22 16:53:00,
2013-06-22 12:55:00,81.2,72.1,30.15,East,90,0.0,10.0,74,0.00,,---,0.00,VWS V13.01,2013-06-22 16:55:00,
2013-06-22 12:56:00,81.2,71.7,30.15,North,360,3.0,10.0,73,0.00,,---,0.00,VWS V13.01,2013-06-22 16:56:00,
2013-06-22 12:58:00,81.4,72.3,30.15,NE,41,7.0,10.0,74,0.00,,---,0.00,VWS V13.01,2013-06-22 16:58:00,
2013-06-22 13:00:00,81.5,72.0,30.15,NNW,348,0.0,10.0,73,0.00,,---,0.00,VWS V13.01,2013-06-22 17:00:00,
2013-06-22 13:01:00,81.4,71.5,30.15,NNE,32,3.0,10.0,72,0.00,,---,0.00,VWS V13.01,2013-06-22 17:01:00,
2013-06-22 13:04:00,81.4,71.5,30.15,NE,54,0.0,9.0,72,0.00,,---,0.00,VWS V13.01,2013-06-22 17:04:00,
2013-06-22 13:05:00,81.3,71.0,30.15,ENE,63,0.0,9.0,71,0.00,,---,0.00,VWS V13.01,2013-06-22 17:05:00,
2013-06-22 13:06:00,81.2,71.7,30.15,ENE,63,0.0,9.0,73,0.00,,---,0.00,VWS V13.01,2013-06-22 17:06:00,
2013-06-22 13:07:00,81.2,71.7,30.15,ENE,63,4.0,9.0,73,0.00,,---,0.00,VWS V13.01,2013-06-22 17:07:00,
2013-06-22 13:09:00,81.2,71.7,30.15,ENE,64,0.0,9.0,73,0.00,,---,0.00,VWS V13.01,2013-06-22 17:09:00,
2013-06-22 13:11:00,81.2,71.7,30.15,ENE,63,0.0,9.0,73,0.00,,---,0.00,VWS V13.01,2013-06-22 17:11:00,
2013-06-22 13:14:00,81.1,71.6,30.15,NE,51,4.0,9.0,73,0.00,,---,0.00,VWS V13.01,2013-06-22 17:14:00,
2013-06-22 13:16:00,81.0,71.1,30.15,NE,49,0.0,9.0,72,0.00,,---,0.00,VWS V13.01,2013-06-22 17:16:00,
2013-06-22 13:17:00,81.0,71.1,30.15,NE,49,0.0,9.0,72,0.00,,---,0.00,VWS V13.01,2013-06-22 17:17:00,
2013-06-22 13:19:00,81.1,71.6,30.15,ENE,58,3.0,9.0,73,0.00,,---,0.00,VWS V13.01,2013-06-22 17:19:00,
2013-06-22 13:21:00,81.2,71.3,30.15,ENE,60,1.0,9.0,72,0.00,,---,0.00,VWS V13.01,2013-06-22 17:21:00,
2013-06-22 13:22:00,81.1,71.2,30.15,NE,53,0.0,9.0,72,0.00,,---,0.00,VWS V13.01,2013-06-22 17:22:00,
2013-06-22 13:24:00,81.1,71.2,30.15,ENE,61,2.0,9.0,72,0.00,,---,0.00,VWS V13.01,2013-06-22 17:24:00,
2013-06-22 13:26:00,81.2,72.1,30.15,ENE,58,1.0,9.0,74,0.00,,---,0.00,VWS V13.01,2013-06-22 17:26:00,
2013-06-22 13:27:00,81.2,71.7,30.15,North,11,0.0,9.0,73,0.00,,---,0.00,VWS V13.01,2013-06-22 17:27:00,
2013-06-22 13:29:00,81.1,71.6,30.15,NE,42,0.0,9.0,73,0.00,,---,0.00,VWS V13.01,2013-06-22 17:29:00,
2013-06-22 13:31:00,81.1,71.6,30.15,NE,51,5.0,9.0,73,0.00,,---,0.00,VWS V13.01,2013-06-22 17:31:00,
2013-06-22 13:32:00,81.0,71.5,30.15,NE,35,4.0,4.0,73,0.00,,---,0.00,VWS V13.01,2013-06-22 17:32:00,
2013-06-22 13:34:00,80.9,71.4,30.15,NNE,32,0.0,6.0,73,0.00,,---,0.00,VWS V13.01,2013-06-22 17:34:00,
2013-06-22 13:36:00,80.8,71.3,30.15,NNW,348,6.0,6.0,73,0.00,,---,0.00,VWS V13.01,2013-06-22 17:36:00,
2013-06-22 13:37:00,80.9,71.4,30.15,NNW,344,2.0,6.0,73,0.00,,---,0.00,VWS V13.01,2013-06-22 17:37:00,
2013-06-22 13:38:00,80.9,71.4,30.15,North,355,2.0,6.0,73,0.00,,---,0.00,VWS V13.01,2013-06-22 17:38:00,
2013-06-22 13:39:00,81.0,71.9,30.15,ENE,75,1.0,9.0,74,0.00,,---,0.00,VWS V13.01,2013-06-22 17:39:00,
2013-06-22 13:41:00,81.0,71.5,30.15,ENE,77,1.0,9.0,73,0.00,,---,0.00,VWS V13.01,2013-06-22 17:41:00,
2013-06-22 13:42:00,81.0,71.1,30.15,ENE,75,1.0,9.0,72,0.00,,---,0.00,VWS V13.01,2013-06-22 17:42:00,
2013-06-22 13:43:00,81.0,71.1,30.15,ENE,76,3.0,9.0,72,0.00,,---,0.00,VWS V13.01,2013-06-22 17:43:00,
2013-06-22 13:44:00,80.9,71.0,30.15,ENE,65,3.0,10.0,72,0.00,,---,0.00,VWS V13.01,2013-06-22 17:44:00,
2013-06-22 13:46:00,80.8,70.9,30.15,ENE,61,3.0,10.0,72,0.00,,---,0.00,VWS V13.01,2013-06-22 17:46:00,
2013-06-22 13:47:00,80.8,70.9,30.15,NE,56,6.0,10.0,72,0.00,,---,0.00,VWS V13.01,2013-06-22 17:47:00,
2013-06-22 13:48:00,80.8,70.9,30.15,ENE,57,6.0,10.0,72,0.00,,---,0.00,VWS V13.01,2013-06-22 17:48:00,
2013-06-22 13:50:00,80.7,71.2,30.14,NE,56,0.0,10.0,73,0.00,,---,0.00,VWS V13.01,2013-06-22 17:50:00,
2013-06-22 13:51:00,80.7,71.7,30.15,NE,54,4.0,10.0,74,0.00,,---,0.00,VWS V13.01,2013-06-22 17:51:00,
2013-06-22 13:53:00,80.8,71.7,30.14,NE,53,0.0,10.0,74,0.00,,---,0.00,VWS V13.01,2013-06-22 17:53:00,
2013-06-22 13:55:00,80.9,71.4,30.14,NE,51,0.0,10.0,73,0.00,,---,0.00,VWS V13.01,2013-06-22 17:55:00,
2013-06-22 13:56:00,80.9,71.4,30.14,ENE,59,0.0,10.0,73,0.00,,---,0.00,VWS V13.01,2013-06-22 17:56:00,
2013-06-22 13:58:00,80.9,71.4,30.14,NNE,22,1.0,10.0,73,0.00,,---,0.00,VWS V13.01,2013-06-22 17:58:00,
2013-06-22 14:00:00,80.8,71.7,30.14,ENE,69,0.0,10.0,74,0.00,,---,0.00,VWS V13.01,2013-06-22 18:00:00,
2013-06-22 14:02:00,80.7,71.7,30.14,NNW,329,0.0,4.0,74,0.00,,---,0.00,VWS V13.01,2013-06-22 18:02:00,
2013-06-22 14:03:00,80.7,71.7,30.14,North,355,0.0,4.0,74,0.00,,---,0.00,VWS V13.01,2013-06-22 18:03:00,
2013-06-22 14:05:00,80.6,71.6,30.14,North,349,0.0,5.0,74,0.00,,---,0.00,VWS V13.01,2013-06-22 18:05:00,
2013-06-22 14:07:00,80.5,71.5,30.14,North,349,0.0,5.0,74,0.00,,---,0.00,VWS V13.01,2013-06-22 18:07:00,
2013-06-22 14:08:00,80.5,71.5,30.14,North,349,0.0,5.0,74,0.00,,---,0.00,VWS V13.01,2013-06-22 18:08:00,
2013-06-22 14:10:00,80.4,71.8,30.14,North,360,0.0,5.0,75,0.00,,---,0.00,VWS V13.01,2013-06-22 18:10:00,
2013-06-22 14:12:00,80.4,71.4,30.14,NNE,13,0.0,5.0,74,0.00,,---,0.00,VWS V13.01,2013-06-22 18:12:00,
2013-06-22 14:13:00,80.4,71.4,30.14,NNE,13,0.0,5.0,74,0.00,,---,0.00,VWS V13.01,2013-06-22 18:13:00,
2013-06-22 14:14:00,80.4,71.4,30.14,NNE,13,0.0,5.0,74,0.00,,---,0.00,VWS V13.01,2013-06-22 18:14:00,
2013-06-22 14:15:00,80.4,71.4,30.14,North,350,5.0,6.0,74,0.00,,---,0.00,VWS V13.01,2013-06-22 18:15:00,
2013-06-22 14:17:00,80.3,70.9,30.14,NE,55,0.0,6.0,73,0.00,,---,0.00,VWS V13.01,2013-06-22 18:17:00,
2013-06-22 14:18:00,80.3,70.9,30.14,NE,51,1.0,6.0,73,0.00,,---,0.00,VWS V13.01,2013-06-22 18:18:00,
2013-06-22 14:19:00,80.3,70.9,30.14,North,355,3.0,6.0,73,0.00,,---,0.00,VWS V13.01,2013-06-22 18:19:00,
2013-06-22 14:20:00,80.2,71.2,30.14,North,355,0.0,6.0,74,0.00,,---,0.00,VWS V13.01,2013-06-22 18:20:00,
2013-06-22 14:22:00,80.2,71.2,30.14,North,355,0.0,6.0,74,0.00,,---,0.00,VWS V13.01,2013-06-22 18:22:00,
2013-06-22 14:23:00,80.2,71.2,30.14,North,355,0.0,6.0,74,0.00,,---,0.00,VWS V13.01,2013-06-22 18:23:00,
2013-06-22 14:24:00,80.2,71.2,30.14,North,355,0.0,6.0,74,0.00,,---,0.00,VWS V13.01,2013-06-22 18:24:00,
2013-06-22 14:25:00,80.2,71.2,30.14,North,355,0.0,6.0,74,0.00,,---,0.00,VWS V13.01,2013-06-22 18:25:00,
2013-06-22 14:27:00,80.1,71.1,30.13,NE,41,2.0,8.0,74,0.00,,---,0.00,VWS V13.01,2013-06-22 18:27:00,
2013-06-22 14:29:00,80.1,71.1,30.13,NE,42,1.0,8.0,74,0.00,,---,0.00,VWS V13.01,2013-06-22 18:29:00,
2013-06-22 14:30:00,80.0,71.0,30.13,NE,42,0.0,8.0,74,0.00,,---,0.00,VWS V13.01,2013-06-22 18:30:00,
2013-06-22 14:33:00,80.0,71.0,30.13,NE,36,0.0,0.0,74,0.00,,---,0.00,VWS V13.01,2013-06-22 18:33:00,
2013-06-22 14:34:00,79.9,71.3,30.13,NE,36,0.0,0.0,75,0.00,,---,0.00,VWS V13.01,2013-06-22 18:34:00,
2013-06-22 14:36:00,79.9,71.3,30.13,NE,38,0.0,1.0,75,0.00,,---,0.00,VWS V13.01,2013-06-22 18:36:00,
2013-06-22 14:38:00,80.0,71.4,30.13,NE,38,0.0,1.0,75,0.00,,---,0.00,VWS V13.01,2013-06-22 18:38:00,
2013-06-22 14:39:00,80.0,71.8,30.13,NE,39,0.0,1.0,76,0.00,,---,0.00,VWS V13.01,2013-06-22 18:39:00,
2013-06-22 14:41:00,80.0,71.8,30.13,NE,38,0.0,1.0,76,0.00,,---,0.00,VWS V13.01,2013-06-22 18:41:00,
2013-06-22 14:43:00,80.1,71.9,30.13,NE,38,0.0,2.0,76,0.00,,---,0.00,VWS V13.01,2013-06-22 18:43:00,
2013-06-22 14:44:00,80.2,71.9,30.13,NE,41,3.0,3.0,76,0.00,,---,0.00,VWS V13.01,2013-06-22 18:44:00,
2013-06-22 14:46:00,80.2,71.6,30.13,NNE,24,5.0,6.0,75,0.00,,---,0.00,VWS V13.01,2013-06-22 18:46:00,
2013-06-22 14:48:00,80.3,71.3,30.13,NNE,16,0.0,6.0,74,0.00,,---,0.00,VWS V13.01,2013-06-22 18:48:00,
2013-06-22 14:49:00,80.3,71.3,30.13,NNE,16,0.0,6.0,74,0.00,,---,0.00,VWS V13.01,2013-06-22 18:49:00,
2013-06-22 14:51:00,80.4,71.4,30.13,NNE,29,3.0,6.0,74,0.00,,---,0.00,VWS V13.01,2013-06-22 18:51:00,
2013-06-22 14:54:00,80.5,71.8,30.12,NNE,28,0.0,6.0,75,0.00,,---,0.00,VWS V13.01,2013-06-22 18:54:00,
2013-06-22 14:56:00,80.5,71.8,30.13,NNE,28,0.0,6.0,75,0.00,,---,0.00,VWS V13.01,2013-06-22 18:56:00,
2013-06-22 14:59:00,80.6,71.9,30.12,NNE,17,0.0,6.0,75,0.00,,---,0.00,VWS V13.01,2013-06-22 18:59:00,
2013-06-22 15:00:00,80.7,71.7,30.12,NNE,17,0.0,6.0,74,0.00,,---,0.00,VWS V13.01,2013-06-22 19:00:00,
2013-06-22 15:01:00,80.9,72.2,30.12,SE,134,2.0,6.0,75,0.00,,---,0.00,VWS V13.01,2013-06-22 19:01:00,
2013-06-22 15:04:00,81.0,71.5,30.12,ENE,61,2.0,4.0,73,0.00,,---,0.00,VWS V13.01,2013-06-22 19:04:00,
2013-06-22 15:05:00,81.1,71.6,30.12,ENE,61,0.0,4.0,73,0.00,,---,0.00,VWS V13.01,2013-06-22 19:05:00,
2013-06-22 15:06:00,81.1,71.6,30.12,ENE,61,0.0,4.0,73,0.00,,---,0.00,VWS V13.01,2013-06-22 19:06:00,
2013-06-22 15:09:00,81.3,72.2,30.12,ENE,61,2.0,4.0,74,0.00,,---,0.00,VWS V13.01,2013-06-22 19:09:00,
2013-06-22 15:10:00,81.4,72.3,30.12,NE,41,4.0,6.0,74,0.00,,---,0.00,VWS V13.01,2013-06-22 19:10:00,
2013-06-22 15:11:00,81.6,72.5,30.12,NE,47,4.0,6.0,74,0.00,,---,0.00,VWS V13.01,2013-06-22 19:11:00,
2013-06-22 15:14:00,82.1,72.6,30.11,NE,51,3.0,6.0,73,0.00,,---,0.00,VWS V13.01,2013-06-22 19:14:00,
2013-06-22 15:15:00,82.2,72.7,30.11,NE,54,0.0,6.0,73,0.00,,---,0.00,VWS V13.01,2013-06-22 19:15:00,
2013-06-22 15:16:00,82.6,72.2,30.11,ENE,63,2.0,6.0,71,0.00,,---,0.00,VWS V13.01,2013-06-22 19:16:00,
2013-06-22 15:19:00,82.9,72.1,30.11,ENE,57,0.0,6.0,70,0.00,,---,0.00,VWS V13.01,2013-06-22 19:19:00,
2013-06-22 15:20:00,82.9,71.7,30.11,NE,49,3.0,6.0,69,0.00,,---,0.00,VWS V13.01,2013-06-22 19:20:00,
2013-06-22 15:21:00,82.9,71.3,30.11,ENE,57,2.0,6.0,68,0.00,,---,0.00,VWS V13.01,2013-06-22 19:21:00,
2013-06-22 15:22:00,82.9,71.3,30.11,ENE,58,3.0,6.0,68,0.00,,---,0.00,VWS V13.01,2013-06-22 19:22:00,
2013-06-22 15:24:00,83.0,71.8,30.11,NE,46,6.0,7.0,69,0.00,,---,0.00,VWS V13.01,2013-06-22 19:24:00,
2013-06-22 15:25:00,82.9,70.8,30.11,NE,52,0.0,7.0,67,0.00,,---,0.00,VWS V13.01,2013-06-22 19:25:00,
2013-06-22 15:26:00,82.9,71.3,30.11,NE,52,0.0,7.0,68,0.00,,---,0.00,VWS V13.01,2013-06-22 19:26:00,
2013-06-22 15:27:00,82.9,70.8,30.11,NE,55,4.0,7.0,67,0.00,,---,0.00,VWS V13.01,2013-06-22 19:27:00,
2013-06-22 15:29:00,82.8,71.2,30.11,NE,55,0.0,7.0,68,0.00,,---,0.00,VWS V13.01,2013-06-22 19:29:00,
2013-06-22 15:30:00,82.8,71.2,30.11,ENE,58,3.0,7.0,68,0.00,,---,0.00,VWS V13.01,2013-06-22 19:30:00,
2013-06-22 15:31:00,82.8,71.6,30.11,ENE,58,4.0,4.0,69,0.00,,---,0.00,VWS V13.01,2013-06-22 19:31:00,
2013-06-22 15:32:00,82.8,71.2,30.11,ENE,59,0.0,4.0,68,0.00,,---,0.00,VWS V13.01,2013-06-22 19:32:00,
2013-06-22 15:35:00,82.7,71.1,30.11,ENE,59,0.0,4.0,68,0.00,,---,0.00,VWS V13.01,2013-06-22 19:35:00,
2013-06-22 15:36:00,82.7,71.1,30.11,ENE,57,0.0,4.0,68,0.00,,---,0.00,VWS V13.01,2013-06-22 19:36:00,
2013-06-22 15:37:00,82.7,71.1,30.11,ENE,58,0.0,4.0,68,0.00,,---,0.00,VWS V13.01,2013-06-22 19:37:00,
2013-06-22 15:40:00,82.6,71.0,30.11,ENE,59,0.0,4.0,68,0.00,,---,0.00,VWS V13.01,2013-06-22 19:40:00,
2013-06-22 15:41:00,82.6,71.4,30.11,ENE,64,0.0,5.0,69,0.00,,---,0.00,VWS V13.01,2013-06-22 19:41:00,
2013-06-22 15:42:00,82.6,71.4,30.11,ENE,64,0.0,5.0,69,0.00,,---,0.00,VWS V13.01,2013-06-22 19:42:00,
2013-06-22 15:45:00,82.6,71.8,30.11,ENE,63,5.0,5.0,70,0.00,,---,0.00,VWS V13.01,2013-06-22 19:45:00,
2013-06-22 15:47:00,82.6,71.4,30.10,ENE,63,1.0,5.0,69,0.00,,---,0.00,VWS V13.01,2013-06-22 19:47:00,
2013-06-22 15:50:00,82.5,71.7,30.11,ENE,59,2.0,5.0,70,0.00,,---,0.00,VWS V13.01,2013-06-22 19:50:00,
2013-06-22 15:52:00,82.5,71.7,30.10,North,5,3.0,6.0,70,0.00,,---,0.00,VWS V13.01,2013-06-22 19:52:00,
2013-06-22 15:55:00,82.4,71.6,30.10,NNW,348,1.0,6.0,70,0.00,,---,0.00,VWS V13.01,2013-06-22 19:55:00,
2013-06-22 15:57:00,82.4,71.2,30.10,NNW,348,0.0,6.0,69,0.00,,---,0.00,VWS V13.01,2013-06-22 19:57:00,
2013-06-22 15:58:00,82.4,71.6,30.10,NNW,348,0.0,6.0,70,0.00,,---,0.00,VWS V13.01,2013-06-22 19:58:00,
2013-06-22 16:00:00,82.4,71.2,30.10,NNW,348,0.0,6.0,69,0.00,,---,0.00,VWS V13.01,2013-06-22 20:00:00,
2013-06-22 16:02:00,82.4,71.6,30.10,NW,326,4.0,6.0,70,0.00,,---,0.00,VWS V13.01,2013-06-22 20:02:00,
2013-06-22 16:03:00,82.4,72.1,30.10,NNW,333,4.0,6.0,71,0.00,,---,0.00,VWS V13.01,2013-06-22 20:03:00,
2013-06-22 16:05:00,82.4,71.6,30.10,NNW,338,0.0,6.0,70,0.00,,---,0.00,VWS V13.01,2013-06-22 20:05:00,
2013-06-22 16:06:00,82.5,71.7,30.10,NNW,338,0.0,6.0,70,0.00,,---,0.00,VWS V13.01,2013-06-22 20:06:00,
2013-06-22 16:07:00,82.5,71.7,30.10,NNW,338,0.0,6.0,70,0.00,,---,0.00,VWS V13.01,2013-06-22 20:07:00,
2013-06-22 16:08:00,82.5,72.2,30.10,NNW,338,0.0,6.0,71,0.00,,---,0.00,VWS V13.01,2013-06-22 20:08:00,
2013-06-22 16:11:00,82.5,71.3,30.09,NNW,338,0.0,6.0,69,0.00,,---,0.00,VWS V13.01,2013-06-22 20:11:00,
2013-06-22 16:12:00,82.5,71.3,30.09,NNW,338,0.0,6.0,69,0.00,,---,0.00,VWS V13.01,2013-06-22 20:12:00,
2013-06-22 16:13:00,82.5,71.7,30.09,NNW,339,2.0,6.0,70,0.00,,---,0.00,VWS V13.01,2013-06-22 20:13:00,
2013-06-22 16:16:00,82.6,72.7,30.09,North,349,0.0,6.0,72,0.00,,---,0.00,VWS V13.01,2013-06-22 20:16:00,
2013-06-22 16:17:00,82.6,71.8,30.09,North,350,2.0,6.0,70,0.00,,---,0.00,VWS V13.01,2013-06-22 20:17:00,
2013-06-22 16:18:00,82.6,71.8,30.09,North,351,2.0,6.0,70,0.00,,---,0.00,VWS V13.01,2013-06-22 20:18:00,
2013-06-22 16:21:00,82.6,71.4,30.09,North,355,0.0,6.0,69,0.00,,---,0.00,VWS V13.01,2013-06-22 20:21:00,
2013-06-22 16:22:00,82.5,71.3,30.09,North,355,0.0,6.0,69,0.00,,---,0.00,VWS V13.01,2013-06-22 20:22:00,
2013-06-22 16:23:00,82.5,71.7,30.09,North,355,0.0,6.0,70,0.00,,---,0.00,VWS V13.01,2013-06-22 20:23:00,
2013-06-22 16:26:00,82.5,72.2,30.09,NNE,17,0.0,6.0,71,0.00,,---,0.00,VWS V13.01,2013-06-22 20:26:00,
2013-06-22 16:28:00,82.5,71.7,30.09,NNE,19,0.0,6.0,70,0.00,,---,0.00,VWS V13.01,2013-06-22 20:28:00,
2013-06-22 16:29:00,82.5,71.7,30.09,NNE,19,1.0,6.0,70,0.00,,---,0.00,VWS V13.01,2013-06-22 20:29:00,
2013-06-22 16:31:00,82.5,71.7,30.09,NNE,19,0.0,3.0,70,0.00,,---,0.00,VWS V13.01,2013-06-22 20:31:00,
2013-06-22 16:32:00,82.5,71.7,30.09,NNE,20,0.0,3.0,70,0.00,,---,0.00,VWS V13.01,2013-06-22 20:32:00,
2013-06-22 16:33:00,82.5,71.3,30.09,NNE,20,0.0,3.0,69,0.00,,---,0.00,VWS V13.01,2013-06-22 20:33:00,
2013-06-22 16:34:00,82.5,71.3,30.09,NNE,19,0.0,3.0,69,0.00,,---,0.00,VWS V13.01,2013-06-22 20:34:00,
2013-06-22 16:35:00,82.5,71.3,30.09,NNE,19,0.0,3.0,69,0.00,,---,0.00,VWS V13.01,2013-06-22 20:35:00,
2013-06-22 16:36:00,82.5,71.3,30.09,NNE,20,0.0,3.0,69,0.00,,---,0.00,VWS V13.01,2013-06-22 20:36:00,
2013-06-22 16:37:00,82.5,71.3,30.09,NNE,19,0.0,3.0,69,0.00,,---,0.00,VWS V13.01,2013-06-22 20:37:00,
2013-06-22 16:38:00,82.6,71.8,30.09,NNE,19,0.0,4.0,70,0.00,,---,0.00,VWS V13.01,2013-06-22 20:38:00,
2013-06-22 16:39:00,82.6,71.4,30.08,NNE,22,1.0,4.0,69,0.00,,---,0.00,VWS V13.01,2013-06-22 20:39:00,
2013-06-22 16:40:00,82.6,71.4,30.08,NNE,26,3.0,4.0,69,0.00,,---,0.00,VWS V13.01,2013-06-22 20:40:00,
2013-06-22 16:41:00,82.7,71.5,30.08,NNE,28,2.0,4.0,69,0.00,,---,0.00,VWS V13.01,2013-06-22 20:41:00,
2013-06-22 16:42:00,82.7,71.5,30.08,ENE,74,5.0,6.0,69,0.00,,---,0.00,VWS V13.01,2013-06-22 20:42:00,
2013-06-22 16:43:00,82.8,72.4,30.08,ENE,65,2.0,6.0,71,0.00,,---,0.00,VWS V13.01,2013-06-22 20:43:00,
2013-06-22 16:44:00,82.8,72.0,30.08,ENE,65,1.0,6.0,70,0.00,,---,0.00,VWS V13.01,2013-06-22 20:44:00,
2013-06-22 16:45:00,82.9,72.1,30.08,ENE,64,1.0,6.0,70,0.00,,---,0.00,VWS V13.01,2013-06-22 20:45:00,
2013-06-22 16:47:00,82.9,71.3,30.08,NNE,13,3.0,6.0,68,0.00,,---,0.00,VWS V13.01,2013-06-22 20:47:00,
2013-06-22 16:49:00,83.0,71.4,30.08,NNE,13,1.0,6.0,68,0.00,,---,0.00,VWS V13.01,2013-06-22 20:49:00,
2013-06-22 16:50:00,83.0,71.4,30.08,NE,38,1.0,6.0,68,0.00,,---,0.00,VWS V13.01,2013-06-22 20:50:00,
2013-06-22 16:52:00,83.2,71.6,30.08,NNW,338,3.0,7.0,68,0.00,,---,0.00,VWS V13.01,2013-06-22 20:52:00,
2013-06-22 16:54:00,83.3,71.6,30.08,NNW,341,3.0,7.0,68,0.00,,---,0.00,VWS V13.01,2013-06-22 20:54:00,
2013-06-22 16:55:00,83.4,71.7,30.08,North,349,0.0,7.0,68,0.00,,---,0.00,VWS V13.01,2013-06-22 20:55:00,
2013-06-22 16:57:00,83.6,72.8,30.07,North,349,0.0,7.0,70,0.00,,---,0.00,VWS V13.01,2013-06-22 20:57:00,
2013-06-22 16:58:00,83.6,72.4,30.07,North,349,0.0,7.0,69,0.00,,---,0.00,VWS V13.01,2013-06-22 20:58:00,
2013-06-22 16:59:00,83.6,72.4,30.07,ENE,78,0.0,11.0,69,0.00,,---,0.00,VWS V13.01,2013-06-22 20:59:00,
2013-06-22 17:00:00,83.7,72.5,30.07,ENE,76,1.0,11.0,69,0.00,,---,0.00,VWS V13.01,2013-06-22 21:00:00,
2013-06-22 17:02:00,83.8,72.1,30.07,ENE,71,4.0,7.0,68,0.00,,---,0.00,VWS V13.01,2013-06-22 21:02:00,
2013-06-22 17:03:00,83.8,72.1,30.07,NE,34,5.0,7.0,68,0.00,,---,0.00,VWS V13.01,2013-06-22 21:03:00,
2013-06-22 17:04:00,83.8,72.1,30.07,NE,55,3.0,7.0,68,0.00,,---,0.00,VWS V13.01,2013-06-22 21:04:00,
2013-06-22 17:05:00,83.8,72.1,30.07,NE,55,1.0,7.0,68,0.00,,---,0.00,VWS V13.01,2013-06-22 21:05:00,
2013-06-22 17:07:00,84.0,72.3,30.07,NE,55,0.0,7.0,68,0.00,,---,0.00,VWS V13.01,2013-06-22 21:07:00,
2013-06-22 17:08:00,84.0,72.3,30.07,NE,55,1.0,7.0,68,0.00,,---,0.00,VWS V13.01,2013-06-22 21:08:00,
2013-06-22 17:09:00,84.1,72.4,30.07,NE,55,0.0,7.0,68,0.00,,---,0.00,VWS V13.01,2013-06-22 21:09:00,
2013-06-22 17:10:00,84.1,72.4,30.07,NE,55,0.0,7.0,68,0.00,,---,0.00,VWS V13.01,2013-06-22 21:10:00,
2013-06-22 17:12:00,84.3,72.6,30.06,NE,56,0.0,7.0,68,0.00,,---,0.00,VWS V13.01,2013-06-22 21:12:00,
2013-06-22 17:14:00,84.3,72.6,30.06,East,80,0.0,7.0,68,0.00,,---,0.00,VWS V13.01,2013-06-22 21:14:00,
2013-06-22 17:15:00,84.3,72.6,30.06,ENE,76,3.0,7.0,68,0.00,,---,0.00,VWS V13.01,2013-06-22 21:15:00,
2013-06-22 17:16:00,84.4,72.7,30.06,ENE,76,0.0,7.0,68,0.00,,---,0.00,VWS V13.01,2013-06-22 21:16:00,
2013-06-22 17:18:00,84.5,72.8,30.06,East,83,0.0,7.0,68,0.00,,---,0.00,VWS V13.01,2013-06-22 21:18:00,
2013-06-22 17:19:00,84.6,73.3,30.06,East,83,2.0,7.0,69,0.00,,---,0.00,VWS V13.01,2013-06-22 21:19:00,
2013-06-22 17:20:00,84.6,73.3,30.06,East,83,0.0,7.0,69,0.00,,---,0.00,VWS V13.01,2013-06-22 21:20:00,
2013-06-22 17:21:00,84.7,72.5,30.06,ENE,74,4.0,7.0,67,0.00,,---,0.00,VWS V13.01,2013-06-22 21:21:00,
2013-06-22 17:23:00,84.7,73.0,30.06,East,90,0.0,7.0,68,0.00,,---,0.00,VWS V13.01,2013-06-22 21:23:00,
2013-06-22 17:24:00,84.7,73.0,30.06,East,88,0.0,7.0,68,0.00,,---,0.00,VWS V13.01,2013-06-22 21:24:00,
2013-06-22 17:25:00,84.7,73.0,30.06,East,88,2.0,7.0,68,0.00,,---,0.00,VWS V13.01,2013-06-22 21:25:00,
2013-06-22 17:26:00,84.7,72.5,30.06,ENE,74,3.0,10.0,67,0.00,,---,0.00,VWS V13.01,2013-06-22 21:26:00,
2013-06-22 17:28:00,84.7,72.5,30.06,ENE,63,0.0,10.0,67,0.00,,---,0.00,VWS V13.01,2013-06-22 21:28:00,
2013-06-22 17:29:00,84.7,72.1,30.06,ENE,64,5.0,10.0,66,0.00,,---,0.00,VWS V13.01,2013-06-22 21:29:00,
2013-06-22 17:30:00,84.7,72.1,30.06,East,90,0.0,10.0,66,0.00,,---,0.00,VWS V13.01,2013-06-22 21:30:00,
2013-06-22 17:31:00,84.6,72.0,30.06,East,82,2.0,10.0,66,0.00,,---,0.00,VWS V13.01,2013-06-22 21:31:00,
2013-06-22 17:33:00,84.6,72.0,30.06,ENE,78,3.0,7.0,66,0.00,,---,0.00,VWS V13.01,2013-06-22 21:33:00,
2013-06-22 17:35:00,84.5,71.9,30.06,ENE,72,2.0,7.0,66,0.00,,---,0.00,VWS V13.01,2013-06-22 21:35:00,
2013-06-22 17:36:00,84.4,71.8,30.06,ENE,68,0.0,7.0,66,0.00,,---,0.00,VWS V13.01,2013-06-22 21:36:00,
2013-06-22 17:38:00,84.3,71.7,30.06,ESE,113,5.0,9.0,66,0.00,,---,0.00,VWS V13.01,2013-06-22 21:38:00,
2013-06-22 17:40:00,84.2,71.2,30.06,ENE,65,5.0,9.0,65,0.00,,---,0.00,VWS V13.01,2013-06-22 21:40:00,
2013-06-22 17:41:00,84.1,71.5,30.06,ENE,76,1.0,9.0,66,0.00,,---,0.00,VWS V13.01,2013-06-22 21:41:00,
2013-06-22 17:44:00,83.9,71.8,30.06,ENE,68,1.0,9.0,67,0.00,,---,0.00,VWS V13.01,2013-06-22 21:44:00,
2013-06-22 17:45:00,83.9,71.3,30.06,East,93,2.0,9.0,66,0.00,,---,0.00,VWS V13.01,2013-06-22 21:45:00,
2013-06-22 17:46:00,83.8,70.8,30.06,ENE,67,2.0,9.0,65,0.00,,---,0.00,VWS V13.01,2013-06-22 21:46:00,
2013-06-22 17:49:00,83.7,70.7,30.06,East,88,2.0,9.0,65,0.00,,---,0.00,VWS V13.01,2013-06-22 21:49:00,
2013-06-22 17:50:00,83.6,70.6,30.06,ENE,57,0.0,9.0,65,0.00,,---,0.00,VWS V13.01,2013-06-22 21:50:00,
2013-06-22 17:51:00,83.6,71.1,30.06,ENE,59,2.0,9.0,66,0.00,,---,0.00,VWS V13.01,2013-06-22 21:51:00,
2013-06-22 17:54:00,83.5,70.9,30.06,NE,49,5.0,9.0,66,0.00,,---,0.00,VWS V13.01,2013-06-22 21:54:00,
2013-06-22 17:55:00,83.4,70.9,30.06,NE,50,4.0,9.0,66,0.00,,---,0.00,VWS V13.01,2013-06-22 21:55:00,
2013-06-22 17:56:00,83.4,70.4,30.06,NE,48,1.0,9.0,65,0.00,,---,0.00,VWS V13.01,2013-06-22 21:56:00,
2013-06-22 17:59:00,83.2,70.7,30.06,NE,46,0.0,9.0,66,0.00,,---,0.00,VWS V13.01,2013-06-22 21:59:00,
2013-06-22 18:00:00,83.1,71.0,30.06,NE,46,0.0,9.0,67,0.00,,---,0.00,VWS V13.01,2013-06-22 22:00:00,
2013-06-22 18:01:00,83.1,71.0,30.06,NE,46,1.0,9.0,67,0.00,,---,0.00,VWS V13.01,2013-06-22 22:01:00,
2013-06-22 18:04:00,83.1,71.4,30.05,NE,46,0.0,3.0,68,0.00,,---,0.00,VWS V13.01,2013-06-22 22:04:00,
2013-06-22 18:05:00,83.0,71.4,30.05,ENE,61,0.0,4.0,68,0.00,,---,0.00,VWS V13.01,2013-06-22 22:05:00,
2013-06-22 18:06:00,83.0,71.4,30.05,ENE,61,0.0,4.0,68,0.00,,---,0.00,VWS V13.01,2013-06-22 22:06:00,
2013-06-22 18:07:00,83.0,71.8,30.06,ENE,78,7.0,7.0,69,0.00,,---,0.00,VWS V13.01,2013-06-22 22:07:00,
2013-06-22 18:09:00,82.9,71.7,30.06,NNE,31,0.0,8.0,69,0.00,,---,0.00,VWS V13.01,2013-06-22 22:09:00,
2013-06-22 18:10:00,82.9,71.7,30.06,ENE,62,2.0,8.0,69,0.00,,---,0.00,VWS V13.01,2013-06-22 22:10:00,
2013-06-22 18:11:00,82.9,71.7,30.06,East,87,1.0,8.0,69,0.00,,---,0.00,VWS V13.01,2013-06-22 22:11:00,
2013-06-22 18:12:00,82.8,71.2,30.06,East,98,2.0,8.0,68,0.00,,---,0.00,VWS V13.01,2013-06-22 22:12:00,
2013-06-22 18:15:00,82.8,71.2,30.06,East,87,0.0,8.0,68,0.00,,---,0.00,VWS V13.01,2013-06-22 22:15:00,
2013-06-22 18:16:00,82.8,71.2,30.06,ENE,76,4.0,8.0,68,0.00,,---,0.00,VWS V13.01,2013-06-22 22:16:00,
2013-06-22 18:17:00,82.7,71.1,30.06,NNE,30,1.0,8.0,68,0.00,,---,0.00,VWS V13.01,2013-06-22 22:17:00,
2013-06-22 18:20:00,82.6,70.5,30.06,NE,49,3.0,9.0,67,0.00,,---,0.00,VWS V13.01,2013-06-22 22:20:00,
2013-06-22 18:21:00,82.5,70.4,30.06,NE,49,3.0,9.0,67,0.00,,---,0.00,VWS V13.01,2013-06-22 22:21:00,
2013-06-22 18:22:00,82.4,70.8,30.05,ENE,57,0.0,9.0,68,0.00,,---,0.00,VWS V13.01,2013-06-22 22:22:00,
2013-06-22 18:25:00,82.3,71.1,30.06,ENE,58,0.0,9.0,69,0.00,,---,0.00,VWS V13.01,2013-06-22 22:25:00,
2013-06-22 18:26:00,82.3,71.1,30.06,ENE,57,0.0,9.0,69,0.00,,---,0.00,VWS V13.01,2013-06-22 22:26:00,
2013-06-22 18:27:00,82.3,71.1,30.06,NE,36,3.0,9.0,69,0.00,,---,0.00,VWS V13.01,2013-06-22 22:27:00,
2013-06-22 18:30:00,82.2,71.0,30.06,ENE,71,4.0,9.0,69,0.00,,---,0.00,VWS V13.01,2013-06-22 22:30:00,
2013-06-22 18:31:00,82.1,70.9,30.06,ENE,69,1.0,9.0,69,0.00,,---,0.00,VWS V13.01,2013-06-22 22:31:00,
2013-06-22 18:32:00,82.0,71.3,30.06,NE,56,3.0,10.0,70,0.00,,---,0.00,VWS V13.01,2013-06-22 22:32:00,
2013-06-22 18:35:00,81.8,71.1,30.06,East,82,2.0,10.0,70,0.00,,---,0.00,VWS V13.01,2013-06-22 22:35:00,
2013-06-22 18:36:00,81.7,71.0,30.06,East,84,0.0,10.0,70,0.00,,---,0.00,VWS V13.01,2013-06-22 22:36:00,
2013-06-22 18:37:00,81.7,71.0,30.06,East,84,1.0,10.0,70,0.00,,---,0.00,VWS V13.01,2013-06-22 22:37:00,
2013-06-22 18:40:00,81.5,71.2,30.06,ENE,65,5.0,10.0,71,0.00,,---,0.00,VWS V13.01,2013-06-22 22:40:00,
2013-06-22 18:41:00,81.4,71.1,30.06,NE,40,3.0,10.0,71,0.00,,---,0.00,VWS V13.01,2013-06-22 22:41:00,
2013-06-22 18:42:00,81.4,71.1,30.06,ENE,57,4.0,10.0,71,0.00,,---,0.00,VWS V13.01,2013-06-22 22:42:00,
2013-06-22 18:45:00,81.2,70.9,30.06,ENE,59,2.0,10.0,71,0.00,,---,0.00,VWS V13.01,2013-06-22 22:45:00,
2013-06-22 18:46:00,81.2,70.9,30.06,ENE,63,1.0,10.0,71,0.00,,---,0.00,VWS V13.01,2013-06-22 22:46:00,
2013-06-22 18:47:00,81.1,70.8,30.06,ENE,63,0.0,10.0,71,0.00,,---,0.00,VWS V13.01,2013-06-22 22:47:00,
2013-06-22 18:48:00,81.1,70.8,30.06,ENE,63,0.0,10.0,71,0.00,,---,0.00,VWS V13.01,2013-06-22 22:48:00,
2013-06-22 18:50:00,81.0,71.1,30.06,ENE,64,0.0,10.0,72,0.00,,---,0.00,VWS V13.01,2013-06-22 22:50:00,
2013-06-22 18:51:00,81.0,71.1,30.06,ENE,64,0.0,10.0,72,0.00,,---,0.00,VWS V13.01,2013-06-22 22:51:00,
2013-06-22 18:52:00,80.9,71.0,30.06,ENE,64,0.0,10.0,72,0.00,,---,0.00,VWS V13.01,2013-06-22 22:52:00,
2013-06-22 18:53:00,80.9,71.0,30.06,ENE,64,0.0,10.0,72,0.00,,---,0.00,VWS V13.01,2013-06-22 22:53:00,
2013-06-22 18:55:00,80.9,71.0,30.06,ENE,64,1.0,10.0,72,0.00,,---,0.00,VWS V13.01,2013-06-22 22:55:00,
2013-06-22 18:57:00,80.8,70.9,30.06,ENE,64,0.0,10.0,72,0.00,,---,0.00,VWS V13.01,2013-06-22 22:57:00,
2013-06-22 18:58:00,80.8,70.9,30.06,ENE,64,1.0,10.0,72,0.00,,---,0.00,VWS V13.01,2013-06-22 22:58:00,
2013-06-22 19:00:00,80.7,70.8,30.06,ENE,72,0.0,10.0,72,0.00,,---,0.00,VWS V13.01,2013-06-22 23:00:00,
2013-06-22 19:02:00,80.6,70.8,30.06,East,79,0.0,1.0,72,0.00,,---,0.00,VWS V13.01,2013-06-22 23:02:00,
2013-06-22 19:03:00,80.5,70.7,30.06,East,79,3.0,4.0,72,0.00,,---,0.00,VWS V13.01,2013-06-22 23:03:00,
2013-06-22 19:05:00,80.4,70.6,30.06,ENE,78,2.0,4.0,72,0.00,,---,0.00,VWS V13.01,2013-06-22 23:05:00,
2013-06-22 19:07:00,80.3,70.9,30.06,ENE,78,0.0,4.0,73,0.00,,---,0.00,VWS V13.01,2013-06-22 23:07:00,
2013-06-22 19:08:00,80.3,70.9,30.06,ENE,74,5.0,5.0,73,0.00,,---,0.00,VWS V13.01,2013-06-22 23:08:00,
2013-06-22 19:10:00,80.1,70.7,30.06,NE,53,11.0,11.0,73,0.00,,---,0.00,VWS V13.01,2013-06-22 23:10:00,
2013-06-22 19:12:00,80.0,70.6,30.07,ENE,57,4.0,11.0,73,0.00,,---,0.00,VWS V13.01,2013-06-22 23:12:00,
2013-06-22 19:13:00,80.0,71.0,30.06,NE,55,6.0,11.0,74,0.00,,---,0.00,VWS V13.01,2013-06-22 23:13:00,
2013-06-22 19:14:00,79.9,70.9,30.06,ENE,76,0.0,11.0,74,0.00,,---,0.00,VWS V13.01,2013-06-22 23:14:00,
2013-06-22 19:15:00,79.8,70.8,30.06,ENE,70,0.0,11.0,74,0.00,,---,0.00,VWS V13.01,2013-06-22 23:15:00,
2013-06-22 19:17:00,79.7,70.7,30.06,East,85,0.0,11.0,74,0.00,,---,0.00,VWS V13.01,2013-06-22 23:17:00,
2013-06-22 19:18:00,79.7,70.7,30.06,East,86,0.0,11.0,74,0.00,,---,0.00,VWS V13.01,2013-06-22 23:18:00,
2013-06-22 19:19:00,79.6,70.6,30.06,East,87,0.0,11.0,74,0.00,,---,0.00,VWS V13.01,2013-06-22 23:19:00,
2013-06-22 19:21:00,79.5,70.5,30.06,East,101,0.0,11.0,74,0.00,,---,0.00,VWS V13.01,2013-06-22 23:21:00,
2013-06-22 19:22:00,79.5,70.5,30.06,ENE,69,0.0,11.0,74,0.00,,---,0.00,VWS V13.01,2013-06-22 23:22:00,
2013-06-22 19:23:00,79.5,70.5,30.06,ENE,69,0.0,11.0,74,0.00,,---,0.00,VWS V13.01,2013-06-22 23:23:00,
2013-06-22 19:24:00,79.4,70.8,30.06,ENE,69,0.0,11.0,75,0.00,,---,0.00,VWS V13.01,2013-06-22 23:24:00,
2013-06-22 19:26:00,79.4,70.8,30.06,East,83,0.0,11.0,75,0.00,,---,0.00,VWS V13.01,2013-06-22 23:26:00,
2013-06-22 19:27:00,79.3,70.3,30.06,East,81,0.0,11.0,74,0.00,,---,0.00,VWS V13.01,2013-06-22 23:27:00,
2013-06-22 19:28:00,79.3,70.3,30.06,East,80,0.0,11.0,74,0.00,,---,0.00,VWS V13.01,2013-06-22 23:28:00,
2013-06-22 19:29:00,79.3,70.3,30.06,East,91,1.0,11.0,74,0.00,,---,0.00,VWS V13.01,2013-06-22 23:29:00,
2013-06-22 19:31:00,79.2,70.2,30.06,East,87,0.0,11.0,74,0.00,,---,0.00,VWS V13.01,2013-06-22 23:31:00,
2013-06-22 19:33:00,79.1,70.1,30.07,ENE,76,0.0,5.0,74,0.00,,---,0.00,VWS V13.01,2013-06-22 23:33:00,
2013-06-22 19:34:00,79.0,70.0,30.07,ENE,64,2.0,5.0,74,0.00,,---,0.00,VWS V13.01,2013-06-22 23:34:00,
2013-06-22 19:36:00,78.9,69.9,30.07,ENE,69,1.0,5.0,74,0.00,,---,0.00,VWS V13.01,2013-06-22 23:36:00,
2013-06-22 19:38:00,78.8,70.2,30.07,ENE,64,0.0,5.0,75,0.00,,---,0.00,VWS V13.01,2013-06-22 23:38:00,
2013-06-22 19:39:00,78.8,70.2,30.07,ENE,62,3.0,6.0,75,0.00,,---,0.00,VWS V13.01,2013-06-22 23:39:00,
2013-06-22 19:41:00,78.7,70.1,30.07,ENE,61,1.0,6.0,75,0.00,,---,0.00,VWS V13.01,2013-06-22 23:41:00,
2013-06-22 19:43:00,78.7,70.5,30.07,NE,49,0.0,7.0,76,0.00,,---,0.00,VWS V13.01,2013-06-22 23:43:00,
2013-06-22 19:44:00,78.7,70.5,30.07,ENE,68,0.0,7.0,76,0.00,,---,0.00,VWS V13.01,2013-06-22 23:44:00,
2013-06-22 19:47:00,78.5,70.3,30.07,ENE,66,0.0,9.0,76,0.00,,---,0.00,VWS V13.01,2013-06-22 23:47:00,
2013-06-22 19:48:00,78.4,70.2,30.07,ENE,61,0.0,9.0,76,0.00,,---,0.00,VWS V13.01,2013-06-22 23:48:00,
2013-06-22 19:49:00,78.4,70.2,30.07,ENE,59,0.0,9.0,76,0.00,,---,0.00,VWS V13.01,2013-06-22 23:49:00,
2013-06-22 19:52:00,78.2,70.0,30.07,ENE,59,0.0,9.0,76,0.00,,---,0.00,VWS V13.01,2013-06-22 23:52:00,
2013-06-22 19:53:00,78.2,70.4,30.07,ENE,59,3.0,9.0,77,0.00,,---,0.00,VWS V13.01,2013-06-22 23:53:00,
2013-06-22 19:54:00,78.1,70.3,30.07,ENE,59,0.0,9.0,77,0.00,,---,0.00,VWS V13.01,2013-06-22 23:54:00,
2013-06-22 19:57:00,78.0,70.2,30.07,ENE,59,0.0,9.0,77,0.00,,---,0.00,VWS V13.01,2013-06-22 23:57:00,
2013-06-22 19:58:00,77.9,70.1,30.07,ENE,59,3.0,9.0,77,0.00,,---,0.00,VWS V13.01,2013-06-22 23:58:00,
2013-06-22 19:59:00,77.9,70.1,30.07,ENE,61,3.0,9.0,77,0.00,,---,0.00,VWS V13.01,2013-06-22 23:59:00,
2013-06-22 20:00:00,77.8,70.0,30.07,ENE,61,1.0,9.0,77,0.00,,---,0.00,VWS V13.01,2013-06-23 00:00:00,
2013-06-22 20:02:00,77.7,70.3,30.07,ENE,61,0.0,0.0,78,0.00,,---,0.00,VWS V13.01,2013-06-23 00:02:00,
2013-06-22 20:03:00,77.7,70.3,30.07,ENE,61,2.0,2.0,78,0.00,,---,0.00,VWS V13.01,2013-06-23 00:03:00,
2013-06-22 20:04:00,77.6,70.2,30.07,ENE,60,0.0,4.0,78,0.00,,---,0.00,VWS V13.01,2013-06-23 00:04:00,
2013-06-22 20:05:00,77.6,70.2,30.07,ENE,61,0.0,4.0,78,0.00,,---,0.00,VWS V13.01,2013-06-23 00:05:00,
2013-06-22 20:07:00,77.5,70.1,30.07,ENE,60,0.0,4.0,78,0.00,,---,0.00,VWS V13.01,2013-06-23 00:07:00,
2013-06-22 20:08:00,77.5,70.1,30.07,ENE,60,0.0,4.0,78,0.00,,---,0.00,VWS V13.01,2013-06-23 00:08:00,
2013-06-22 20:09:00,77.4,70.0,30.07,ENE,60,0.0,4.0,78,0.00,,---,0.00,VWS V13.01,2013-06-23 00:09:00,
2013-06-22 20:10:00,77.4,70.0,30.07,ENE,60,0.0,4.0,78,0.00,,---,0.00,VWS V13.01,2013-06-23 00:10:00,
2013-06-22 20:12:00,77.3,69.9,30.08,ENE,60,0.0,4.0,78,0.00,,---,0.00,VWS V13.01,2013-06-23 00:12:00,
2013-06-22 20:13:00,77.2,69.8,30.08,ENE,60,0.0,4.0,78,0.00,,---,0.00,VWS V13.01,2013-06-23 00:13:00,
2013-06-22 20:14:00,77.2,69.8,30.08,ENE,60,0.0,4.0,78,0.00,,---,0.00,VWS V13.01,2013-06-23 00:14:00,
2013-06-22 20:15:00,77.2,69.8,30.08,ENE,60,0.0,4.0,78,0.00,,---,0.00,VWS V13.01,2013-06-23 00:15:00,
2013-06-22 20:18:00,77.0,69.6,30.08,ENE,60,5.0,5.0,78,0.00,,---,0.00,VWS V13.01,2013-06-23 00:18:00,
2013-06-22 20:19:00,77.0,69.6,30.08,ENE,65,2.0,5.0,78,0.00,,---,0.00,VWS V13.01,2013-06-23 00:19:00,
2013-06-22 20:20:00,76.9,69.5,30.08,ENE,68,0.0,6.0,78,0.00,,---,0.00,VWS V13.01,2013-06-23 00:20:00,
2013-06-22 20:23:00,76.7,69.3,30.08,ENE,68,0.0,6.0,78,0.00,,---,0.00,VWS V13.01,2013-06-23 00:23:00,
2013-06-22 20:24:00,76.7,69.3,30.08,ENE,69,0.0,6.0,78,0.00,,---,0.00,VWS V13.01,2013-06-23 00:24:00,
2013-06-22 20:25:00,76.6,69.2,30.08,ENE,68,0.0,6.0,78,0.00,,---,0.00,VWS V13.01,2013-06-23 00:25:00,
2013-06-22 20:29:00,76.5,69.1,30.08,ENE,69,0.0,6.0,78,0.00,,---,0.00,VWS V13.01,2013-06-23 00:29:00,
2013-06-22 20:30:00,76.4,69.0,30.08,ENE,71,0.0,6.0,78,0.00,,---,0.00,VWS V13.01,2013-06-23 00:30:00,
2013-06-22 20:34:00,76.2,69.2,30.08,ENE,74,0.0,3.0,79,0.00,,---,0.00,VWS V13.01,2013-06-23 00:34:00,
2013-06-22 20:35:00,76.2,69.2,30.08,ENE,74,0.0,5.0,79,0.00,,---,0.00,VWS V13.01,2013-06-23 00:35:00,
2013-06-22 20:36:00,76.1,69.1,30.08,ENE,74,0.0,5.0,79,0.00,,---,0.00,VWS V13.01,2013-06-23 00:36:00,
2013-06-22 20:39:00,76.0,69.0,30.08,ENE,74,0.0,5.0,79,0.00,,---,0.00,VWS V13.01,2013-06-23 00:39:00,
2013-06-22 20:40:00,76.0,69.0,30.08,ENE,74,0.0,5.0,79,0.00,,---,0.00,VWS V13.01,2013-06-23 00:40:00,
2013-06-22 20:41:00,76.0,69.0,30.07,ENE,74,0.0,5.0,79,0.00,,---,0.00,VWS V13.01,2013-06-23 00:41:00,
2013-06-22 20:44:00,75.9,68.9,30.07,ENE,74,0.0,5.0,79,0.00,,---,0.00,VWS V13.01,2013-06-23 00:44:00,
2013-06-22 20:45:00,75.8,68.8,30.07,ENE,74,0.0,5.0,79,0.00,,---,0.00,VWS V13.01,2013-06-23 00:45:00,
2013-06-22 20:46:00,75.8,68.8,30.07,ENE,74,0.0,5.0,79,0.00,,---,0.00,VWS V13.01,2013-06-23 00:46:00,
2013-06-22 20:49:00,75.7,68.7,30.07,ENE,74,0.0,5.0,79,0.00,,---,0.00,VWS V13.01,2013-06-23 00:49:00,
2013-06-22 20:50:00,75.7,68.7,30.07,ENE,74,0.0,5.0,79,0.00,,---,0.00,VWS V13.01,2013-06-23 00:50:00,
2013-06-22 20:51:00,75.7,69.1,30.07,ENE,74,0.0,5.0,80,0.00,,---,0.00,VWS V13.01,2013-06-23 00:51:00,
2013-06-22 20:55:00,75.5,68.9,30.07,ENE,74,0.0,5.0,80,0.00,,---,0.00,VWS V13.01,2013-06-23 00:55:00,
2013-06-22 20:56:00,75.5,68.9,30.08,ENE,74,0.0,5.0,80,0.00,,---,0.00,VWS V13.01,2013-06-23 00:56:00,
2013-06-22 20:57:00,75.5,68.9,30.08,ENE,74,0.0,5.0,80,0.00,,---,0.00,VWS V13.01,2013-06-23 00:57:00,
2013-06-22 21:00:00,75.4,68.8,30.08,ENE,74,0.0,5.0,80,0.00,,---,0.00,VWS V13.01,2013-06-23 01:00:00,
2013-06-22 21:02:00,75.3,68.7,30.08,ENE,74,0.0,0.0,80,0.00,,---,0.00,VWS V13.01,2013-06-23 01:02:00,
2013-06-22 21:05:00,75.2,68.6,30.07,ENE,74,0.0,0.0,80,0.00,,---,0.00,VWS V13.01,2013-06-23 01:05:00,
2013-06-22 21:06:00,75.2,68.6,30.07,ENE,74,0.0,1.0,80,0.00,,---,0.00,VWS V13.01,2013-06-23 01:06:00,
2013-06-22 21:07:00,75.2,68.6,30.07,ENE,74,0.0,1.0,80,0.00,,---,0.00,VWS V13.01,2013-06-23 01:07:00,
2013-06-22 21:08:00,75.2,68.6,30.07,ENE,74,0.0,1.0,80,0.00,,---,0.00,VWS V13.01,2013-06-23 01:08:00,
2013-06-22 21:10:00,75.1,68.9,30.07,ENE,74,0.0,1.0,81,0.00,,---,0.00,VWS V13.01,2013-06-23 01:10:00,
2013-06-22 21:11:00,75.1,68.9,30.07,ENE,74,0.0,1.0,81,0.00,,---,0.00,VWS V13.01,2013-06-23 01:11:00,
2013-06-22 21:12:00,75.0,68.8,30.07,ENE,74,0.0,1.0,81,0.00,,---,0.00,VWS V13.01,2013-06-23 01:12:00,
2013-06-22 21:13:00,75.0,68.8,30.07,ENE,74,0.0,1.0,81,0.00,,---,0.00,VWS V13.01,2013-06-23 01:13:00,
2013-06-22 21:15:00,74.9,68.7,30.07,ENE,74,0.0,1.0,81,0.00,,---,0.00,VWS V13.01,2013-06-23 01:15:00,
2013-06-22 21:16:00,74.9,68.7,30.07,ENE,74,0.0,1.0,81,0.00,,---,0.00,VWS V13.01,2013-06-23 01:16:00,
2013-06-22 21:17:00,74.9,69.0,30.07,ENE,74,0.0,1.0,82,0.00,,---,0.00,VWS V13.01,2013-06-23 01:17:00,
2013-06-22 21:18:00,74.8,68.9,30.07,ENE,74,0.0,2.0,82,0.00,,---,0.00,VWS V13.01,2013-06-23 01:18:00,
2013-06-22 21:20:00,74.8,68.9,30.08,ESE,108,0.0,5.0,82,0.00,,---,0.00,VWS V13.01,2013-06-23 01:20:00,
2013-06-22 21:21:00,74.8,68.9,30.08,ESE,108,1.0,5.0,82,0.00,,---,0.00,VWS V13.01,2013-06-23 01:21:00,
2013-06-22 21:22:00,74.7,68.8,30.08,ESE,108,0.0,5.0,82,0.00,,---,0.00,VWS V13.01,2013-06-23 01:22:00,
2013-06-22 21:23:00,74.7,68.8,30.08,ESE,108,0.0,5.0,82,0.00,,---,0.00,VWS V13.01,2013-06-23 01:23:00,
2013-06-22 21:26:00,74.6,69.1,30.08,SSE,158,0.0,6.0,83,0.00,,---,0.00,VWS V13.01,2013-06-23 01:26:00,
2013-06-22 21:27:00,74.6,69.1,30.08,SSE,158,0.0,6.0,83,0.00,,---,0.00,VWS V13.01,2013-06-23 01:27:00,
2013-06-22 21:28:00,74.6,69.1,30.08,SSE,157,0.0,6.0,83,0.00,,---,0.00,VWS V13.01,2013-06-23 01:28:00,
2013-06-22 21:31:00,74.5,69.0,30.08,SSE,158,0.0,6.0,83,0.00,,---,0.00,VWS V13.01,2013-06-23 01:31:00,
2013-06-22 21:33:00,74.5,69.0,30.08,SSE,157,0.0,0.0,83,0.00,,---,0.00,VWS V13.01,2013-06-23 01:33:00,
2013-06-22 21:36:00,74.4,68.9,30.08,SSE,159,0.0,1.0,83,0.00,,---,0.00,VWS V13.01,2013-06-23 01:36:00,
2013-06-22 21:38:00,74.3,68.8,30.08,SSE,159,0.0,1.0,83,0.00,,---,0.00,VWS V13.01,2013-06-23 01:38:00,
2013-06-22 21:39:00,74.3,68.8,30.08,SSE,158,0.0,1.0,83,0.00,,---,0.00,VWS V13.01,2013-06-23 01:39:00,
2013-06-22 21:41:00,74.2,68.7,30.08,SSE,158,0.0,2.0,83,0.00,,---,0.00,VWS V13.01,2013-06-23 01:41:00,
2013-06-22 21:43:00,74.2,69.1,30.08,SSE,154,0.0,2.0,84,0.00,,---,0.00,VWS V13.01,2013-06-23 01:43:00,
2013-06-22 21:44:00,74.2,69.1,30.08,SSE,153,0.0,2.0,84,0.00,,---,0.00,VWS V13.01,2013-06-23 01:44:00,
2013-06-22 21:46:00,74.2,69.1,30.08,SSE,154,0.0,2.0,84,0.00,,---,0.00,VWS V13.01,2013-06-23 01:46:00,
2013-06-22 21:48:00,74.1,69.0,30.08,SSE,154,0.0,2.0,84,0.00,,---,0.00,VWS V13.01,2013-06-23 01:48:00,
2013-06-22 21:49:00,74.1,69.0,30.08,SSE,153,0.0,2.0,84,0.00,,---,0.00,VWS V13.01,2013-06-23 01:49:00,
2013-06-22 21:51:00,74.0,68.9,30.08,SSE,154,1.0,2.0,84,0.00,,---,0.00,VWS V13.01,2013-06-23 01:51:00,
2013-06-22 21:52:00,74.0,68.9,30.08,SSE,154,0.0,2.0,84,0.00,,---,0.00,VWS V13.01,2013-06-23 01:52:00,
2013-06-22 21:54:00,74.0,69.2,30.08,SSE,154,0.0,2.0,85,0.00,,---,0.00,VWS V13.01,2013-06-23 01:54:00,
2013-06-22 21:56:00,73.9,69.1,30.08,SSE,154,0.0,2.0,85,0.00,,---,0.00,VWS V13.01,2013-06-23 01:56:00,
2013-06-22 21:57:00,73.9,69.1,30.08,SSE,154,0.0,2.0,85,0.00,,---,0.00,VWS V13.01,2013-06-23 01:57:00,
2013-06-22 21:59:00,73.8,69.0,30.08,SSE,154,0.0,2.0,85,0.00,,---,0.00,VWS V13.01,2013-06-23 01:59:00,
2013-06-22 22:01:00,73.7,68.6,30.09,SSE,153,0.0,0.0,84,0.00,,---,0.00,VWS V13.01,2013-06-23 02:01:00,
2013-06-22 22:02:00,73.7,68.6,30.09,SSE,153,0.0,0.0,84,0.00,,---,0.00,VWS V13.01,2013-06-23 02:02:00,
2013-06-22 22:04:00,73.7,68.6,30.09,SSE,154,0.0,0.0,84,0.00,,---,0.00,VWS V13.01,2013-06-23 02:04:00,
2013-06-22 22:06:00,73.6,68.5,30.09,SSE,154,0.0,0.0,84,0.00,,---,0.00,VWS V13.01,2013-06-23 02:06:00,
2013-06-22 22:07:00,73.5,68.4,30.09,SSE,153,0.0,0.0,84,0.00,,---,0.00,VWS V13.01,2013-06-23 02:07:00,
2013-06-22 22:09:00,73.5,68.7,30.09,SSE,154,0.0,0.0,85,0.00,,---,0.00,VWS V13.01,2013-06-23 02:09:00,
2013-06-22 22:10:00,73.5,68.7,30.09,SSE,154,0.0,0.0,85,0.00,,---,0.00,VWS V13.01,2013-06-23 02:10:00,
2013-06-22 22:12:00,73.4,68.6,30.09,SSE,153,0.0,0.0,85,0.00,,---,0.00,VWS V13.01,2013-06-23 02:12:00,
2013-06-22 22:15:00,73.3,68.5,30.09,SSE,153,0.0,2.0,85,0.00,,---,0.00,VWS V13.01,2013-06-23 02:15:00,
2013-06-22 22:16:00,73.3,68.5,30.09,SSE,154,0.0,2.0,85,0.00,,---,0.00,VWS V13.01,2013-06-23 02:16:00,
2013-06-22 22:17:00,73.3,68.5,30.09,SSE,154,0.0,2.0,85,0.00,,---,0.00,VWS V13.01,2013-06-23 02:17:00,
2013-06-22 22:20:00,73.2,68.8,30.09,SSE,154,0.0,2.0,86,0.00,,---,0.00,VWS V13.01,2013-06-23 02:20:00,
2013-06-22 22:22:00,73.2,68.8,30.09,SSE,154,0.0,2.0,86,0.00,,---,0.00,VWS V13.01,2013-06-23 02:22:00,
2013-06-22 22:23:00,73.1,68.7,30.09,SSE,153,0.0,2.0,86,0.00,,---,0.00,VWS V13.01,2013-06-23 02:23:00,
2013-06-22 22:25:00,73.1,68.7,30.09,SSE,153,0.0,2.0,86,0.00,,---,0.00,VWS V13.01,2013-06-23 02:25:00,
2013-06-22 22:27:00,73.0,68.6,30.09,SSE,153,0.0,2.0,86,0.00,,---,0.00,VWS V13.01,2013-06-23 02:27:00,
2013-06-22 22:28:00,73.0,68.6,30.09,SSE,153,0.0,2.0,86,0.00,,---,0.00,VWS V13.01,2013-06-23 02:28:00,
2013-06-22 22:30:00,72.9,68.5,30.09,SSE,152,0.0,2.0,86,0.00,,---,0.00,VWS V13.01,2013-06-23 02:30:00,
2013-06-22 22:32:00,72.9,68.5,30.09,SSE,152,0.0,0.0,86,0.00,,---,0.00,VWS V13.01,2013-06-23 02:32:00,
2013-06-22 22:33:00,72.9,68.5,30.09,SSE,152,0.0,0.0,86,0.00,,---,0.00,VWS V13.01,2013-06-23 02:33:00,
2013-06-22 22:35:00,72.8,68.4,30.09,SSE,153,0.0,0.0,86,0.00,,---,0.00,VWS V13.01,2013-06-23 02:35:00,
2013-06-22 22:36:00,72.8,68.4,30.09,SSE,152,0.0,0.0,86,0.00,,---,0.00,VWS V13.01,2013-06-23 02:36:00,
2013-06-22 22:37:00,72.7,68.3,30.09,SSE,152,0.0,1.0,86,0.00,,---,0.00,VWS V13.01,2013-06-23 02:37:00,
2013-06-22 22:38:00,72.7,68.3,30.09,SSE,153,0.0,1.0,86,0.00,,---,0.00,VWS V13.01,2013-06-23 02:38:00,
2013-06-22 22:40:00,72.7,68.6,30.10,SSE,153,0.0,1.0,87,0.00,,---,0.00,VWS V13.01,2013-06-23 02:40:00,
2013-06-22 22:41:00,72.7,68.6,30.10,SSE,152,0.0,1.0,87,0.00,,---,0.00,VWS V13.01,2013-06-23 02:41:00,
2013-06-22 22:43:00,72.6,68.5,30.10,SSE,153,0.0,1.0,87,0.00,,---,0.00,VWS V13.01,2013-06-23 02:43:00,
2013-06-22 22:45:00,72.6,68.5,30.10,SSE,153,0.0,1.0,87,0.00,,---,0.00,VWS V13.01,2013-06-23 02:45:00,
2013-06-22 22:46:00,72.5,68.4,30.10,SSE,152,0.0,1.0,87,0.00,,---,0.00,VWS V13.01,2013-06-23 02:46:00,
2013-06-22 22:48:00,72.5,68.4,30.10,SSE,152,0.0,1.0,87,0.00,,---,0.00,VWS V13.01,2013-06-23 02:48:00,
2013-06-22 22:49:00,72.5,68.4,30.10,SSE,153,0.0,1.0,87,0.00,,---,0.00,VWS V13.01,2013-06-23 02:49:00,
2013-06-22 22:50:00,72.4,68.7,30.10,SSE,152,0.0,1.0,88,0.00,,---,0.00,VWS V13.01,2013-06-23 02:50:00,
2013-06-22 22:51:00,72.4,68.3,30.10,SSE,153,0.0,1.0,87,0.00,,---,0.00,VWS V13.01,2013-06-23 02:51:00,
2013-06-22 22:53:00,72.4,68.7,30.10,SSE,153,0.0,1.0,88,0.00,,---,0.00,VWS V13.01,2013-06-23 02:53:00,
2013-06-22 22:54:00,72.4,68.3,30.10,SSE,152,0.0,1.0,87,0.00,,---,0.00,VWS V13.01,2013-06-23 02:54:00,
2013-06-22 22:55:00,72.3,68.2,30.10,SSE,153,0.0,1.0,87,0.00,,---,0.00,VWS V13.01,2013-06-23 02:55:00,
2013-06-22 22:57:00,72.3,68.2,30.10,SSE,153,0.0,1.0,87,0.00,,---,0.00,VWS V13.01,2013-06-23 02:57:00,
2013-06-22 22:58:00,72.3,68.2,30.10,SSE,153,0.0,1.0,87,0.00,,---,0.00,VWS V13.01,2013-06-23 02:58:00,
2013-06-22 23:00:00,72.2,68.1,30.10,SSE,152,0.0,1.0,87,0.00,,---,0.00,VWS V13.01,2013-06-23 03:00:00,
2013-06-22 23:01:00,72.2,68.1,30.10,SSE,152,0.0,1.0,87,0.00,,---,0.00,VWS V13.01,2013-06-23 03:01:00,
2013-06-22 23:02:00,72.2,68.1,30.10,SSE,152,0.0,0.0,87,0.00,,---,0.00,VWS V13.01,2013-06-23 03:02:00,
2013-06-22 23:03:00,72.1,68.0,30.10,SSE,153,0.0,0.0,87,0.00,,---,0.00,VWS V13.01,2013-06-23 03:03:00,
2013-06-22 23:04:00,72.1,68.0,30.10,SSE,153,0.0,0.0,87,0.00,,---,0.00,VWS V13.01,2013-06-23 03:04:00,
2013-06-22 23:05:00,72.1,68.0,30.10,SSE,153,0.0,0.0,87,0.00,,---,0.00,VWS V13.01,2013-06-23 03:05:00,
2013-06-22 23:06:00,72.1,68.0,30.10,SSE,152,0.0,0.0,87,0.00,,---,0.00,VWS V13.01,2013-06-23 03:06:00,
2013-06-22 23:07:00,72.0,68.3,30.10,SSE,153,0.0,0.0,88,0.00,,---,0.00,VWS V13.01,2013-06-23 03:07:00,
2013-06-22 23:08:00,72.0,68.3,30.10,SSE,153,0.0,0.0,88,0.00,,---,0.00,VWS V13.01,2013-06-23 03:08:00,
2013-06-22 23:09:00,72.0,68.3,30.10,SSE,153,0.0,0.0,88,0.00,,---,0.00,VWS V13.01,2013-06-23 03:09:00,
2013-06-22 23:10:00,72.0,68.3,30.10,SSE,153,0.0,0.0,88,0.00,,---,0.00,VWS V13.01,2013-06-23 03:10:00,
2013-06-22 23:11:00,71.9,68.2,30.10,SSE,152,0.0,0.0,88,0.00,,---,0.00,VWS V13.01,2013-06-23 03:11:00,
2013-06-22 23:12:00,71.9,68.2,30.10,SSE,152,0.0,0.0,88,0.00,,---,0.00,VWS V13.01,2013-06-23 03:12:00,
2013-06-22 23:13:00,71.9,68.2,30.10,SSE,153,0.0,0.0,88,0.00,,---,0.00,VWS V13.01,2013-06-23 03:13:00,
2013-06-22 23:14:00,71.9,68.2,30.10,SSE,152,0.0,0.0,88,0.00,,---,0.00,VWS V13.01,2013-06-23 03:14:00,
2013-06-22 23:15:00,71.8,68.1,30.10,SSE,152,0.0,0.0,88,0.00,,---,0.00,VWS V13.01,2013-06-23 03:15:00,
2013-06-22 23:16:00,71.8,68.1,30.10,SSE,152,0.0,0.0,88,0.00,,---,0.00,VWS V13.01,2013-06-23 03:16:00,
2013-06-22 23:17:00,71.8,68.1,30.10,SSE,153,0.0,0.0,88,0.00,,---,0.00,VWS V13.01,2013-06-23 03:17:00,
2013-06-22 23:18:00,71.7,68.0,30.10,SSE,152,0.0,1.0,88,0.00,,---,0.00,VWS V13.01,2013-06-23 03:18:00,
2013-06-22 23:19:00,71.7,68.0,30.10,SSE,152,0.0,1.0,88,0.00,,---,0.00,VWS V13.01,2013-06-23 03:19:00,
2013-06-22 23:20:00,71.7,68.0,30.10,SSE,153,0.0,1.0,88,0.00,,---,0.00,VWS V13.01,2013-06-23 03:20:00,
2013-06-22 23:21:00,71.7,68.0,30.10,SSE,149,1.0,2.0,88,0.00,,---,0.00,VWS V13.01,2013-06-23 03:21:00,
2013-06-22 23:22:00,71.7,68.0,30.10,SSE,149,0.0,2.0,88,0.00,,---,0.00,VWS V13.01,2013-06-23 03:22:00,
2013-06-22 23:24:00,71.6,67.9,30.10,SSE,149,0.0,2.0,88,0.00,,---,0.00,VWS V13.01,2013-06-23 03:24:00,
2013-06-22 23:26:00,71.6,67.9,30.10,SSE,149,0.0,2.0,88,0.00,,---,0.00,VWS V13.01,2013-06-23 03:26:00,
2013-06-22 23:28:00,71.6,67.9,30.10,SSE,149,0.0,2.0,88,0.00,,---,0.00,VWS V13.01,2013-06-23 03:28:00,
2013-06-22 23:29:00,71.5,68.1,30.10,SSE,149,0.0,2.0,89,0.00,,---,0.00,VWS V13.01,2013-06-23 03:29:00,
2013-06-22 23:30:00,71.6,68.2,30.10,SSE,149,0.0,2.0,89,0.00,,---,0.00,VWS V13.01,2013-06-23 03:30:00,
2013-06-22 23:31:00,71.5,68.1,30.10,SSE,149,0.0,2.0,89,0.00,,---,0.00,VWS V13.01,2013-06-23 03:31:00,
2013-06-22 23:33:00,71.5,68.1,30.10,SSE,149,0.0,1.0,89,0.00,,---,0.00,VWS V13.01,2013-06-23 03:33:00,
2013-06-22 23:34:00,71.5,68.1,30.11,SSE,149,0.0,1.0,89,0.00,,---,0.00,VWS V13.01,2013-06-23 03:34:00,
2013-06-22 23:36:00,71.5,68.1,30.11,SSE,149,0.0,1.0,89,0.00,,---,0.00,VWS V13.01,2013-06-23 03:36:00,
2013-06-22 23:38:00,71.5,68.4,30.11,SSE,149,0.0,1.0,90,0.00,,---,0.00,VWS V13.01,2013-06-23 03:38:00,
2013-06-22 23:39:00,71.5,68.4,30.11,SSE,149,0.0,1.0,90,0.00,,---,0.00,VWS V13.01,2013-06-23 03:39:00,
2013-06-22 23:41:00,71.4,68.3,30.11,SSE,149,0.0,1.0,90,0.00,,---,0.00,VWS V13.01,2013-06-23 03:41:00,
2013-06-22 23:42:00,71.4,68.3,30.11,SSE,149,0.0,1.0,90,0.00,,---,0.00,VWS V13.01,2013-06-23 03:42:00,
2013-06-22 23:43:00,71.4,68.3,30.11,SSE,149,0.0,1.0,90,0.00,,---,0.00,VWS V13.01,2013-06-23 03:43:00,
2013-06-22 23:44:00,71.3,68.2,30.11,SSE,149,0.0,1.0,90,0.00,,---,0.00,VWS V13.01,2013-06-23 03:44:00,
2013-06-22 23:45:00,71.3,68.2,30.11,SSE,149,0.0,1.0,90,0.00,,---,0.00,VWS V13.01,2013-06-23 03:45:00,
2013-06-22 23:46:00,71.3,68.2,30.11,SSE,149,0.0,1.0,90,0.00,,---,0.00,VWS V13.01,2013-06-23 03:46:00,
2013-06-22 23:47:00,71.3,68.2,30.11,SSE,149,0.0,1.0,90,0.00,,---,0.00,VWS V13.01,2013-06-23 03:47:00,
2013-06-22 23:48:00,71.3,68.2,30.11,SSE,149,0.0,1.0,90,0.00,,---,0.00,VWS V13.01,2013-06-23 03:48:00,
2013-06-22 23:49:00,71.3,68.2,30.11,SSE,149,0.0,1.0,90,0.00,,---,0.00,VWS V13.01,2013-06-23 03:49:00,
2013-06-22 23:50:00,71.3,68.2,30.11,SSE,149,0.0,1.0,90,0.00,,---,0.00,VWS V13.01,2013-06-23 03:50:00,
2013-06-22 23:51:00,71.3,68.2,30.11,SSE,149,0.0,1.0,90,0.00,,---,0.00,VWS V13.01,2013-06-23 03:51:00,
2013-06-22 23:52:00,71.3,68.5,30.11,SSE,149,0.0,1.0,91,0.00,,---,0.00,VWS V13.01,2013-06-23 03:52:00,
2013-06-22 23:53:00,71.3,68.5,30.11,SSE,149,0.0,1.0,91,0.00,,---,0.00,VWS V13.01,2013-06-23 03:53:00,
2013-06-22 23:54:00,71.3,68.5,30.11,SSE,149,0.0,1.0,91,0.00,,---,0.00,VWS V13.01,2013-06-23 03:54:00,
2013-06-22 23:55:00,71.3,68.5,30.11,SSE,149,0.0,1.0,91,0.00,,---,0.00,VWS V13.01,2013-06-23 03:55:00,
2013-06-22 23:56:00,71.3,68.5,30.11,SSE,149,0.0,1.0,91,0.00,,---,0.00,VWS V13.01,2013-06-23 03:56:00,
2013-06-22 23:57:00,71.3,68.5,30.11,SSE,149,0.0,1.0,91,0.00,,---,0.00,VWS V13.01,2013-06-23 03:57:00,
2013-06-22 23:58:00,71.3,68.5,30.11,SSE,149,0.0,1.0,91,0.00,,---,0.00,VWS V13.01,2013-06-23 03:58:00,
2013-06-22 23:59:00,71.3,68.5,30.11,SSE,149,0.0,1.0,91,0.00,,---,0.00,VWS V13.01,2013-06-23 03:59:00,